Observation data for Guadalupe Mtns Park on 11/07/2019      Previous  Date       Current Mesonet Observations  Soil Data  Daily Summary Page  Observations in Plain Language
KGU1 070600Z 00004KT 12/11 A3023 RMK A01 T01220113  RH  097%=      5-min Rain = 0
KGU1 070601Z 01004KT 12/11 A3022 RMK A01 T01220113  RH  098%=      5-min Rain = 0
KGU1 070602Z 02004KT 12/11 A3022 RMK A01 T01210112  RH  098%=      5-min Rain = 0
KGU1 070603Z 02005KT 12/11 A3022 RMK A01 T01220112  RH  098%=      5-min Rain = 0
KGU1 070604Z 01005KT 12/11 A3022 RMK A01 T01220113  RH  098%=      5-min Rain = 0
KGU1 070605Z 02004KT 12/11 A3022 RMK A01 T01210113  RH  098%=      5-min Rain = 0
KGU1 070606Z 02004KT 12/11 A3022 RMK A01 T01220113  RH  098%=      5-min Rain = 0
KGU1 070607Z 02004KT 12/11 A3022 RMK A01 T01220113  RH  098%=      5-min Rain = 0
KGU1 070608Z 01004KT 12/11 A3022 RMK A01 T01220113  RH  098%=      5-min Rain = 0
KGU1 070609Z 02003KT 12/11 A3022 RMK A01 T01220113  RH  098%=      5-min Rain = 0
KGU1 070610Z 02004KT 12/11 A3022 RMK A01 T01220113  RH  098%=      5-min Rain = 0
KGU1 070611Z 03003KT 12/11 A3022 RMK A01 T01220113  RH  098%=      5-min Rain = 0
KGU1 070612Z 04004KT 12/11 A3022 RMK A01 T01220113  RH  098%=      5-min Rain = 0
KGU1 070613Z 04003KT 12/11 A3022 RMK A01 T01220114  RH  098%=      5-min Rain = 0
KGU1 070614Z 05003KT 12/11 A3022 RMK A01 T01220114  RH  098%=      5-min Rain = 0
KGU1 070615Z 05003KT 12/11 A3022 RMK A01 T01230114  RH  098%=      5-min Rain = 0
KGU1 070616Z 05002KT 12/11 A3023 RMK A01 T01220114  RH  098%=      5-min Rain = 0.01
KGU1 070617Z 04002KT 12/11 A3023 RMK A01 T01220114  RH  098%=      5-min Rain = 0
KGU1 070618Z 02003KT 12/11 A3023 RMK A01 T01230114  RH  098%=      5-min Rain = 0
KGU1 070619Z 03004KT 12/12 A3023 RMK A01 T01230115  RH  098%=      5-min Rain = 0
KGU1 070620Z 03004KT 12/11 A3023 RMK A01 T01230114  RH  098%=      5-min Rain = 0
KGU1 070621Z 03004KT 12/12 A3023 RMK A01 T01230115  RH  098%=      5-min Rain = 0
KGU1 070622Z 02004KT 12/12 A3023 RMK A01 T01230115  RH  098%=      5-min Rain = 0
KGU1 070623Z 03005KT 12/12 A3023 RMK A01 T01230115  RH  098%=      5-min Rain = 0
KGU1 070624Z 05004KT 12/12 A3023 RMK A01 T01230115  RH  098%=      5-min Rain = 0
KGU1 070625Z 04003KT 12/11 A3023 RMK A01 T01220114  RH  098%=      5-min Rain = 0
KGU1 070626Z 05003KT 12/12 A3023 RMK A01 T01230115  RH  098%=      5-min Rain = 0
KGU1 070627Z 06004KT 12/12 A3023 RMK A01 T01230115  RH  098%=      5-min Rain = 0
KGU1 070628Z 06003KT 12/12 A3023 RMK A01 T01230115  RH  099%=      5-min Rain = 0
KGU1 070629Z 08003KT 12/12 A3023 RMK A01 T01230115  RH  099%=      5-min Rain = 0
KGU1 070630Z 08003KT 12/12 A3023 RMK A01 T01230115  RH  099%=      5-min Rain = 0
KGU1 070631Z 06002KT 12/12 A3023 RMK A01 T01230116  RH  099%=      5-min Rain = 0
KGU1 070632Z 05003KT 12/12 A3023 RMK A01 T01230116  RH  099%=      5-min Rain = 0
KGU1 070633Z 05003KT 12/12 A3023 RMK A01 T01230116  RH  099%=      5-min Rain = 0
KGU1 070634Z 05003KT 12/12 A3023 RMK A01 T01230116  RH  099%=      5-min Rain = 0
KGU1 070635Z 06004KT 12/12 A3023 RMK A01 T01230116  RH  099%=      5-min Rain = 0
KGU1 070636Z 07004KT 12/12 A3023 RMK A01 T01230116  RH  099%=      5-min Rain = 0
KGU1 070637Z 07004KT 12/12 A3023 RMK A01 T01230116  RH  099%=      5-min Rain = 0
KGU1 070638Z 08004KT 12/12 A3023 RMK A01 T01230116  RH  099%=      5-min Rain = 0
KGU1 070639Z 08005KT 12/12 A3023 RMK A01 T01230116  RH  099%=      5-min Rain = 0
KGU1 070640Z 08005KT 12/12 A3023 RMK A01 T01230116  RH  099%=      5-min Rain = 0
KGU1 070641Z 08006KT 12/12 A3023 RMK A01 T01230115  RH  099%=      5-min Rain = 0
KGU1 070642Z 08006KT 12/12 A3023 RMK A01 T01220115  RH  099%=      5-min Rain = 0
KGU1 070643Z 08005KT 12/11 A3023 RMK A01 T01220114  RH  099%=      5-min Rain = 0
KGU1 070644Z 07006KT 12/11 A3023 RMK A01 T01220114  RH  099%=      5-min Rain = 0
KGU1 070645Z 08005KT 12/11 A3023 RMK A01 T01210114  RH  099%=      5-min Rain = 0
KGU1 070646Z 07006KT 12/11 A3023 RMK A01 T01210114  RH  099%=      5-min Rain = 0
KGU1 070647Z 07006KT 12/11 A3023 RMK A01 T01210114  RH  099%=      5-min Rain = 0
KGU1 070648Z 07007KT 12/11 A3023 RMK A01 T01210114  RH  099%=      5-min Rain = 0
KGU1 070649Z 06005KT 12/11 A3023 RMK A01 T01200113  RH  099%=      5-min Rain = 0
KGU1 070650Z 05006KT 12/11 A3023 RMK A01 T01200113  RH  099%=      5-min Rain = 0
KGU1 070651Z 06005KT 12/11 A3023 RMK A01 T01200113  RH  099%=      5-min Rain = 0
KGU1 070652Z 06006KT 12/11 A3023 RMK A01 T01200113  RH  099%=      5-min Rain = 0
KGU1 070653Z 06006KT 12/11 A3023 RMK A01 T01200113  RH  099%=      5-min Rain = 0
KGU1 070654Z 06006KT 12/11 A3023 RMK A01 T01200113  RH  099%=      5-min Rain = 0
KGU1 070655Z 06006KT 12/11 A3023 RMK A01 T01200113  RH  099%=      5-min Rain = 0
KGU1 070656Z 06006KT 12/11 A3023 RMK A01 T01200113  RH  099%=      5-min Rain = 0
KGU1 070657Z 06006KT 12/11 A3023 RMK A01 T01200113  RH  099%=      5-min Rain = 0
KGU1 070658Z 06005KT 12/11 A3023 RMK A01 T01200113  RH  099%=      5-min Rain = 0
KGU1 070659Z 06005KT 12/11 A3023 RMK A01 T01200113  RH  099%=      5-min Rain = 0
KGU1 070700Z 06005KT 12/11 A3023 RMK A01 T01200113  RH  099%=      5-min Rain = 0
KGU1 070701Z 05005KT 12/11 A3023 RMK A01 T01200113  RH  099%=      5-min Rain = 0
KGU1 070702Z 05006KT 12/11 A3023 RMK A01 T01200113  RH  099%=      5-min Rain = 0
KGU1 070703Z 05005KT 12/11 A3023 RMK A01 T01200113  RH  099%=      5-min Rain = 0
KGU1 070704Z 04006KT 12/11 A3023 RMK A01 T01200113  RH  099%=      5-min Rain = 0
KGU1 070705Z 04006KT 12/11 A3023 RMK A01 T01200113  RH  099%=      5-min Rain = 0
KGU1 070706Z 04006KT 12/11 A3023 RMK A01 T01200113  RH  099%=      5-min Rain = 0
KGU1 070707Z 04006KT 12/11 A3023 RMK A01 T01200113  RH  099%=      5-min Rain = 0
KGU1 070708Z 04007KT 12/11 A3023 RMK A01 T01200113  RH  099%=      5-min Rain = 0
KGU1 070709Z 04005KT 12/11 A3023 RMK A01 T01200113  RH  099%=      5-min Rain = 0
KGU1 070710Z 04005KT 12/11 A3023 RMK A01 T01200114  RH  099%=      5-min Rain = 0
KGU1 070711Z 04006KT 12/11 A3023 RMK A01 T01200114  RH  099%=      5-min Rain = 0
KGU1 070712Z 03006KT 12/11 A3023 RMK A01 T01200114  RH  099%=      5-min Rain = 0
KGU1 070713Z 04006KT 12/11 A3023 RMK A01 T01200114  RH  099%=      5-min Rain = 0
KGU1 070714Z 04006KT 12/11 A3023 RMK A01 T01200114  RH  099%=      5-min Rain = 0
KGU1 070715Z 04007KT 12/11 A3023 RMK A01 T01200114  RH  099%=      5-min Rain = 0
KGU1 070716Z 04005KT 12/11 A3023 RMK A01 T01200114  RH  100%=      5-min Rain = 0
KGU1 070717Z 04006KT 12/11 A3023 RMK A01 T01200114  RH  100%=      5-min Rain = 0
KGU1 070718Z 05005KT 12/11 A3023 RMK A01 T01200114  RH  100%=      5-min Rain = 0
KGU1 070719Z 04006KT 12/11 A3023 RMK A01 T01200114  RH  100%=      5-min Rain = 0
KGU1 070720Z 04007KT 12/11 A3023 RMK A01 T01200114  RH  100%=      5-min Rain = 0
KGU1 070721Z 04006KT 12/11 A3023 RMK A01 T01200114  RH  100%=      5-min Rain = 0
KGU1 070722Z 04004KT 12/11 A3023 RMK A01 T01200114  RH  100%=      5-min Rain = 0
KGU1 070723Z 05004KT 12/11 A3023 RMK A01 T01200114  RH  099%=      5-min Rain = 0
KGU1 070724Z 04003KT 12/11 A3023 RMK A01 T01200114  RH  099%=      5-min Rain = 0
KGU1 070725Z 05005KT 12/11 A3023 RMK A01 T01200114  RH  100%=      5-min Rain = 0
KGU1 070726Z 05004KT 12/11 A3023 RMK A01 T01200114  RH  100%=      5-min Rain = 0
KGU1 070727Z 04004KT 12/11 A3023 RMK A01 T01200114  RH  100%=      5-min Rain = 0
KGU1 070728Z 04003KT 12/11 A3023 RMK A01 T01200114  RH  100%=      5-min Rain = 0
KGU1 070729Z 04004KT 12/11 A3023 RMK A01 T01200114  RH  100%=      5-min Rain = 0
KGU1 070730Z 04005KT 12/11 A3023 RMK A01 T01200114  RH  100%=      5-min Rain = 0
KGU1 070731Z 04004KT 12/11 A3023 RMK A01 T01200114  RH  100%=      5-min Rain = 0
KGU1 070732Z 05004KT 12/11 A3023 RMK A01 T01200114  RH  100%=      5-min Rain = 0
KGU1 070733Z 04004KT 12/11 A3023 RMK A01 T01200114  RH  100%=      5-min Rain = 0
KGU1 070734Z 05004KT 12/11 A3023 RMK A01 T01200114  RH  100%=      5-min Rain = 0
KGU1 070735Z 04004KT 12/11 A3023 RMK A01 T01200114  RH  100%=      5-min Rain = 0
KGU1 070736Z 04003KT 12/11 A3023 RMK A01 T01200114  RH  100%=      5-min Rain = 0
KGU1 070737Z 03004KT 12/11 A3023 RMK A01 T01200114  RH  100%=      5-min Rain = 0
KGU1 070738Z 04005KT 12/11 A3023 RMK A01 T01200114  RH  100%=      5-min Rain = 0
KGU1 070739Z 04005KT 12/12 A3023 RMK A01 T01200115  RH  100%=      5-min Rain = 0
KGU1 070740Z 03004KT 12/12 A3023 RMK A01 T01210115  RH  100%=      5-min Rain = 0
KGU1 070741Z 04004KT 12/12 A3023 RMK A01 T01210115  RH  100%=      5-min Rain = 0
KGU1 070742Z 04004KT 12/12 A3023 RMK A01 T01210115  RH  100%=      5-min Rain = 0
KGU1 070743Z 03004KT 12/12 A3023 RMK A01 T01210115  RH  100%=      5-min Rain = 0
KGU1 070744Z 03004KT 12/12 A3023 RMK A01 T01210115  RH  100%=      5-min Rain = 0
KGU1 070745Z 03004KT 12/12 A3023 RMK A01 T01210115  RH  100%=      5-min Rain = 0
KGU1 070746Z 03003KT 12/12 A3023 RMK A01 T01210115  RH  100%=      5-min Rain = 0
KGU1 070747Z 04003KT 12/12 A3023 RMK A01 T01210115  RH  100%=      5-min Rain = 0
KGU1 070748Z 04003KT 12/12 A3023 RMK A01 T01210115  RH  100%=      5-min Rain = 0
KGU1 070749Z 05003KT 12/12 A3023 RMK A01 T01210115  RH  100%=      5-min Rain = 0
KGU1 070750Z 05003KT 12/12 A3023 RMK A01 T01210115  RH  100%=      5-min Rain = 0
KGU1 070751Z 05003KT 12/12 A3023 RMK A01 T01210115  RH  100%=      5-min Rain = 0
KGU1 070752Z 05003KT 12/12 A3023 RMK A01 T01210115  RH  100%=      5-min Rain = 0
KGU1 070753Z 05002KT 12/12 A3023 RMK A01 T01210115  RH  100%=      5-min Rain = 0
KGU1 070754Z 05002KT 12/12 A3023 RMK A01 T01210115  RH  100%=      5-min Rain = 0
KGU1 070755Z 04003KT 12/12 A3023 RMK A01 T01210115  RH  100%=      5-min Rain = 0
KGU1 070756Z 05003KT 12/12 A3023 RMK A01 T01210115  RH  100%=      5-min Rain = 0
KGU1 070757Z 05002KT 12/12 A3023 RMK A01 T01210115  RH  100%=      5-min Rain = 0
KGU1 070758Z 06002KT 12/12 A3023 RMK A01 T01210115  RH  100%=      5-min Rain = 0
KGU1 070759Z 07001KT 12/12 A3023 RMK A01 T01210115  RH  100%=      5-min Rain = 0
KGU1 070800Z 07001KT 12/12 A3023 RMK A01 T01210115  RH  100%=      5-min Rain = 0
KGU1 070801Z 08002KT 12/12 A3024 RMK A01 T01210116  RH  100%=      5-min Rain = 0
KGU1 070802Z 07002KT 12/12 A3024 RMK A01 T01210115  RH  100%=      5-min Rain = 0
KGU1 070803Z 07002KT 12/12 A3024 RMK A01 T01210116  RH  100%=      5-min Rain = 0
KGU1 070804Z 07002KT 12/12 A3024 RMK A01 T01210116  RH  100%=      5-min Rain = 0
KGU1 070805Z 08002KT 12/12 A3024 RMK A01 T01210116  RH  100%=      5-min Rain = 0
KGU1 070806Z 07002KT 12/12 A3024 RMK A01 T01210116  RH  100%=      5-min Rain = 0
KGU1 070807Z 06002KT 12/12 A3023 RMK A01 T01210116  RH  100%=      5-min Rain = 0
KGU1 070808Z 06002KT 12/12 A3023 RMK A01 T01210116  RH  100%=      5-min Rain = 0
KGU1 070809Z 06002KT 12/12 A3023 RMK A01 T01210116  RH  100%=      5-min Rain = 0
KGU1 070810Z 06002KT 12/12 A3023 RMK A01 T01210116  RH  100%=      5-min Rain = 0
KGU1 070811Z 05003KT 12/12 A3023 RMK A01 T01210116  RH  100%=      5-min Rain = 0
KGU1 070812Z 06003KT 12/12 A3023 RMK A01 T01210116  RH  100%=      5-min Rain = 0
KGU1 070813Z 05003KT 12/12 A3023 RMK A01 T01210115  RH  100%=      5-min Rain = 0
KGU1 070814Z 05003KT 12/12 A3023 RMK A01 T01210115  RH  100%=      5-min Rain = 0
KGU1 070815Z 05003KT 12/12 A3023 RMK A01 T01210115  RH  100%=      5-min Rain = 0
KGU1 070816Z 05003KT 12/12 A3023 RMK A01 T01210115  RH  100%=      5-min Rain = 0
KGU1 070817Z 06003KT 12/12 A3023 RMK A01 T01210115  RH  100%=      5-min Rain = 0
KGU1 070818Z 05003KT 12/12 A3023 RMK A01 T01210115  RH  100%=      5-min Rain = 0
KGU1 070819Z 05003KT 12/12 A3023 RMK A01 T01210115  RH  100%=      5-min Rain = 0
KGU1 070820Z 05003KT 12/12 A3023 RMK A01 T01210115  RH  100%=      5-min Rain = 0
KGU1 070821Z 05003KT 12/12 A3023 RMK A01 T01210115  RH  100%=      5-min Rain = 0
KGU1 070822Z 05003KT 12/12 A3023 RMK A01 T01210115  RH  100%=      5-min Rain = 0
KGU1 070823Z 05003KT 12/12 A3023 RMK A01 T01210115  RH  100%=      5-min Rain = 0
KGU1 070824Z 05003KT 12/12 A3023 RMK A01 T01210115  RH  100%=      5-min Rain = 0
KGU1 070825Z 05003KT 12/12 A3023 RMK A01 T01210115  RH  100%=      5-min Rain = 0
KGU1 070826Z 05003KT 12/12 A3022 RMK A01 T01210115  RH  100%=      5-min Rain = 0
KGU1 070827Z 05004KT 12/12 A3022 RMK A01 T01210115  RH  100%=      5-min Rain = 0
KGU1 070828Z 04003KT 12/12 A3023 RMK A01 T01210115  RH  100%=      5-min Rain = 0
KGU1 070829Z 04003KT 12/12 A3023 RMK A01 T01210115  RH  100%=      5-min Rain = 0
KGU1 070830Z 04003KT 12/12 A3023 RMK A01 T01210115  RH  100%=      5-min Rain = 0
KGU1 070831Z 04004KT 12/12 A3023 RMK A01 T01210115  RH  100%=      5-min Rain = 0
KGU1 070832Z 04004KT 12/12 A3023 RMK A01 T01210115  RH  100%=      5-min Rain = 0
KGU1 070833Z 04004KT 12/12 A3023 RMK A01 T01210115  RH  100%=      5-min Rain = 0
KGU1 070834Z 04004KT 12/12 A3023 RMK A01 T01210115  RH  100%=      5-min Rain = 0
KGU1 070835Z 04004KT 12/12 A3023 RMK A01 T01210115  RH  100%=      5-min Rain = 0
KGU1 070836Z 04004KT 12/12 A3023 RMK A01 T01210115  RH  100%=      5-min Rain = 0
KGU1 070837Z 05003KT 12/12 A3023 RMK A01 T01210116  RH  100%=      5-min Rain = 0
KGU1 070838Z 04002KT 12/12 A3023 RMK A01 T01210116  RH  100%=      5-min Rain = 0
KGU1 070839Z 04003KT 12/12 A3023 RMK A01 T01210116  RH  100%=      5-min Rain = 0
KGU1 070840Z 05002KT 12/12 A3023 RMK A01 T01210116  RH  100%=      5-min Rain = 0
KGU1 070841Z 05003KT 12/12 A3023 RMK A01 T01210116  RH  100%=      5-min Rain = 0
KGU1 070842Z 06002KT 12/12 A3023 RMK A01 T01210116  RH  100%=      5-min Rain = 0
KGU1 070843Z 07002KT 12/12 A3023 RMK A01 T01210116  RH  100%=      5-min Rain = 0
KGU1 070844Z 08003KT 12/12 A3023 RMK A01 T01210116  RH  100%=      5-min Rain = 0
KGU1 070845Z 08003KT 12/12 A3023 RMK A01 T01210116  RH  100%=      5-min Rain = 0
KGU1 070846Z 08003KT 12/12 A3023 RMK A01 T01210116  RH  100%=      5-min Rain = 0
KGU1 070847Z 08002KT 12/12 A3023 RMK A01 T01210116  RH  100%=      5-min Rain = 0
KGU1 070848Z 07002KT 12/12 A3023 RMK A01 T01210116  RH  100%=      5-min Rain = 0
KGU1 070849Z 07002KT 12/12 A3023 RMK A01 T01210116  RH  100%=      5-min Rain = 0
KGU1 070850Z 07002KT 12/12 A3023 RMK A01 T01210116  RH  100%=      5-min Rain = 0
KGU1 070851Z 07002KT 12/12 A3023 RMK A01 T01210116  RH  100%=      5-min Rain = 0
KGU1 070852Z 05001KT 12/12 A3023 RMK A01 T01210116  RH  100%=      5-min Rain = 0
KGU1 070853Z 06001KT 12/12 A3023 RMK A01 T01210116  RH  100%=      5-min Rain = 0
KGU1 070854Z 05002KT 12/12 A3023 RMK A01 T01210116  RH  100%=      5-min Rain = 0
KGU1 070855Z 04002KT 12/12 A3023 RMK A01 T01210116  RH  100%=      5-min Rain = 0
KGU1 070856Z 04002KT 12/12 A3023 RMK A01 T01210116  RH  100%=      5-min Rain = 0
KGU1 070857Z 03001KT 12/12 A3023 RMK A01 T01210116  RH  100%=      5-min Rain = 0
KGU1 070858Z 04001KT 12/12 A3023 RMK A01 T01210116  RH  100%=      5-min Rain = 0
KGU1 070859Z 04001KT 12/12 A3023 RMK A01 T01210116  RH  100%=      5-min Rain = 0
KGU1 070900Z 03002KT 12/12 A3023 RMK A01 T01210116  RH  100%=      5-min Rain = 0
KGU1 070901Z 03001KT 12/12 A3023 RMK A01 T01210116  RH  100%=      5-min Rain = 0
KGU1 070902Z 05001KT 12/12 A3023 RMK A01 T01210116  RH  100%=      5-min Rain = 0
KGU1 070903Z 04002KT 12/12 A3023 RMK A01 T01210116  RH  100%=      5-min Rain = 0
KGU1 070904Z 05002KT 12/12 A3023 RMK A01 T01210116  RH  100%=      5-min Rain = 0
KGU1 070905Z 06002KT 12/12 A3023 RMK A01 T01210116  RH  100%=      5-min Rain = 0
KGU1 070906Z 05002KT 12/12 A3023 RMK A01 T01220116  RH  100%=      5-min Rain = 0
KGU1 070907Z 04002KT 12/12 A3023 RMK A01 T01220116  RH  100%=      5-min Rain = 0
KGU1 070908Z 03002KT 12/12 A3023 RMK A01 T01210116  RH  100%=      5-min Rain = 0
KGU1 070909Z 02002KT 12/12 A3023 RMK A01 T01220116  RH  100%=      5-min Rain = 0
KGU1 070910Z 02002KT 12/12 A3023 RMK A01 T01220116  RH  100%=      5-min Rain = 0
KGU1 070911Z 02003KT 12/12 A3023 RMK A01 T01210116  RH  100%=      5-min Rain = 0
KGU1 070912Z 03003KT 12/12 A3023 RMK A01 T01210116  RH  100%=      5-min Rain = 0
KGU1 070913Z 03002KT 12/12 A3023 RMK A01 T01210116  RH  100%=      5-min Rain = 0
KGU1 070914Z 04003KT 12/12 A3023 RMK A01 T01210116  RH  100%=      5-min Rain = 0
KGU1 070915Z 04003KT 12/12 A3022 RMK A01 T01210116  RH  100%=      5-min Rain = 0
KGU1 070916Z 03003KT 12/12 A3022 RMK A01 T01210116  RH  100%=      5-min Rain = 0
KGU1 070917Z 03003KT 12/12 A3022 RMK A01 T01210116  RH  100%=      5-min Rain = 0
KGU1 070918Z 02003KT 12/12 A3022 RMK A01 T01210116  RH  100%=      5-min Rain = 0
KGU1 070919Z 02003KT 12/12 A3022 RMK A01 T01210116  RH  100%=      5-min Rain = 0
KGU1 070920Z 02003KT 12/12 A3022 RMK A01 T01210116  RH  100%=      5-min Rain = 0
KGU1 070921Z 01003KT 12/12 A3023 RMK A01 T01210116  RH  100%=      5-min Rain = 0
KGU1 070922Z 02003KT 12/12 A3023 RMK A01 T01220116  RH  100%=      5-min Rain = 0
KGU1 070923Z 03003KT 12/12 A3023 RMK A01 T01210116  RH  100%=      5-min Rain = 0
KGU1 070924Z 02003KT 12/12 A3023 RMK A01 T01210116  RH  100%=      5-min Rain = 0
KGU1 070925Z 02004KT 12/12 A3023 RMK A01 T01210116  RH  100%=      5-min Rain = 0
KGU1 070926Z 02004KT 12/12 A3023 RMK A01 T01210116  RH  100%=      5-min Rain = 0
KGU1 070927Z 01004KT 12/12 A3023 RMK A01 T01210116  RH  100%=      5-min Rain = 0
KGU1 070928Z 02005KT 12/12 A3023 RMK A01 T01210116  RH  100%=      5-min Rain = 0
KGU1 070929Z 02004KT 12/12 A3023 RMK A01 T01210116  RH  100%=      5-min Rain = 0
KGU1 070930Z 01004KT 12/12 A3022 RMK A01 T01210116  RH  100%=      5-min Rain = 0
KGU1 070931Z 02004KT 12/12 A3022 RMK A01 T01210116  RH  100%=      5-min Rain = 0
KGU1 070932Z 02005KT 12/12 A3022 RMK A01 T01210116  RH  100%=      5-min Rain = 0
KGU1 070933Z 02004KT 12/12 A3022 RMK A01 T01210116  RH  100%=      5-min Rain = 0
KGU1 070934Z 02003KT 12/12 A3022 RMK A01 T01210116  RH  100%=      5-min Rain = 0
KGU1 070935Z 02003KT 12/12 A3022 RMK A01 T01210116  RH  100%=      5-min Rain = 0
KGU1 070936Z 02004KT 12/12 A3022 RMK A01 T01210116  RH  100%=      5-min Rain = 0
KGU1 070937Z 02004KT 12/12 A3022 RMK A01 T01210116  RH  100%=      5-min Rain = 0
KGU1 070938Z 01004KT 12/12 A3022 RMK A01 T01210116  RH  100%=      5-min Rain = 0
KGU1 070939Z 01004KT 12/12 A3022 RMK A01 T01210116  RH  100%=      5-min Rain = 0
KGU1 070940Z 02004KT 12/12 A3022 RMK A01 T01210116  RH  100%=      5-min Rain = 0
KGU1 070941Z 02003KT 12/12 A3022 RMK A01 T01210115  RH  100%=      5-min Rain = 0
KGU1 070942Z 02003KT 12/12 A3022 RMK A01 T01210115  RH  100%=      5-min Rain = 0
KGU1 070943Z 02003KT 12/12 A3022 RMK A01 T01210115  RH  100%=      5-min Rain = 0
KGU1 070944Z 02003KT 12/12 A3022 RMK A01 T01210115  RH  100%=      5-min Rain = 0
KGU1 070945Z 03003KT 12/12 A3022 RMK A01 T01210115  RH  100%=      5-min Rain = 0
KGU1 070946Z 03004KT 12/12 A3022 RMK A01 T01200115  RH  100%=      5-min Rain = 0
KGU1 070947Z 04004KT 12/12 A3022 RMK A01 T01200115  RH  100%=      5-min Rain = 0
KGU1 070948Z 04004KT 12/12 A3022 RMK A01 T01200115  RH  100%=      5-min Rain = 0
KGU1 070949Z 04004KT 12/12 A3022 RMK A01 T01200115  RH  100%=      5-min Rain = 0
KGU1 070950Z 04004KT 12/12 A3022 RMK A01 T01200115  RH  100%=      5-min Rain = 0
KGU1 070951Z 04004KT 12/12 A3022 RMK A01 T01200115  RH  100%=      5-min Rain = 0
KGU1 070952Z 03003KT 12/12 A3022 RMK A01 T01200115  RH  100%=      5-min Rain = 0
KGU1 070953Z 03004KT 12/11 A3022 RMK A01 T01190114  RH  100%=      5-min Rain = 0
KGU1 070954Z 03004KT 12/11 A3022 RMK A01 T01190114  RH  100%=      5-min Rain = 0
KGU1 070955Z 03004KT 12/11 A3022 RMK A01 T01190114  RH  100%=      5-min Rain = 0
KGU1 070956Z 03004KT 12/11 A3022 RMK A01 T01190114  RH  100%=      5-min Rain = 0
KGU1 070957Z 02003KT 12/11 A3022 RMK A01 T01190114  RH  100%=      5-min Rain = 0
KGU1 070958Z 01003KT 12/11 A3022 RMK A01 T01190114  RH  100%=      5-min Rain = 0
KGU1 070959Z 01003KT 12/11 A3022 RMK A01 T01190114  RH  100%=      5-min Rain = 0
KGU1 071000Z 01003KT 12/11 A3022 RMK A01 T01190114  RH  100%=      5-min Rain = 0
KGU1 071001Z 00003KT 12/11 A3022 RMK A01 T01190114  RH  100%=      5-min Rain = 0
KGU1 071002Z 01003KT 12/11 A3022 RMK A01 T01190114  RH  100%=      5-min Rain = 0
KGU1 071003Z 00004KT 12/11 A3022 RMK A01 T01190113  RH  100%=      5-min Rain = 0
KGU1 071004Z 00004KT 12/11 A3022 RMK A01 T01190113  RH  100%=      5-min Rain = 0
KGU1 071005Z 01004KT 12/11 A3022 RMK A01 T01190113  RH  100%=      5-min Rain = 0
KGU1 071006Z 02004KT 12/11 A3022 RMK A01 T01190113  RH  100%=      5-min Rain = 0
KGU1 071007Z 02004KT 12/11 A3022 RMK A01 T01190113  RH  100%=      5-min Rain = 0
KGU1 071008Z 02004KT 12/11 A3022 RMK A01 T01190113  RH  100%=      5-min Rain = 0
KGU1 071009Z 02003KT 12/11 A3022 RMK A01 T01190113  RH  100%=      5-min Rain = 0
KGU1 071010Z 01003KT 12/11 A3022 RMK A01 T01190113  RH  100%=      5-min Rain = 0
KGU1 071011Z 01003KT 12/11 A3022 RMK A01 T01190113  RH  100%=      5-min Rain = 0
KGU1 071012Z 02003KT 12/11 A3022 RMK A01 T01190113  RH  100%=      5-min Rain = 0
KGU1 071013Z 03003KT 12/11 A3022 RMK A01 T01190113  RH  100%=      5-min Rain = 0
KGU1 071014Z 04003KT 12/11 A3022 RMK A01 T01190113  RH  100%=      5-min Rain = 0
KGU1 071015Z 04003KT 12/11 A3022 RMK A01 T01190113  RH  100%=      5-min Rain = 0
KGU1 071016Z 05003KT 12/11 A3022 RMK A01 T01190113  RH  100%=      5-min Rain = 0
KGU1 071017Z 05003KT 12/11 A3022 RMK A01 T01180113  RH  100%=      5-min Rain = 0
KGU1 071018Z 05003KT 12/11 A3022 RMK A01 T01180113  RH  100%=      5-min Rain = 0
KGU1 071019Z 05003KT 12/11 A3022 RMK A01 T01180113  RH  100%=      5-min Rain = 0
KGU1 071020Z 05003KT 12/11 A3022 RMK A01 T01180113  RH  100%=      5-min Rain = 0
KGU1 071021Z 05003KT 12/11 A3022 RMK A01 T01180113  RH  100%=      5-min Rain = 0
KGU1 071022Z 05003KT 12/11 A3022 RMK A01 T01180113  RH  100%=      5-min Rain = 0
KGU1 071023Z 04003KT 12/11 A3022 RMK A01 T01170112  RH  100%=      5-min Rain = 0
KGU1 071024Z 03002KT 12/11 A3022 RMK A01 T01170112  RH  100%=      5-min Rain = 0
KGU1 071025Z 04003KT 12/11 A3022 RMK A01 T01170112  RH  100%=      5-min Rain = 0
KGU1 071026Z 04002KT 12/11 A3023 RMK A01 T01170112  RH  100%=      5-min Rain = 0
KGU1 071027Z 03002KT 12/11 A3023 RMK A01 T01170112  RH  100%=      5-min Rain = 0
KGU1 071028Z 03002KT 12/11 A3023 RMK A01 T01170112  RH  100%=      5-min Rain = 0
KGU1 071029Z 03002KT 12/11 A3022 RMK A01 T01170112  RH  100%=      5-min Rain = 0
KGU1 071030Z 03003KT 12/11 A3022 RMK A01 T01170112  RH  100%=      5-min Rain = 0
KGU1 071031Z 03003KT 12/11 A3022 RMK A01 T01170112  RH  100%=      5-min Rain = 0
KGU1 071032Z 03003KT 12/11 A3022 RMK A01 T01170112  RH  100%=      5-min Rain = 0
KGU1 071033Z 03003KT 12/11 A3023 RMK A01 T01170112  RH  100%=      5-min Rain = 0
KGU1 071034Z 04004KT 12/11 A3023 RMK A01 T01170112  RH  100%=      5-min Rain = 0
KGU1 071035Z 05003KT 12/11 A3023 RMK A01 T01170112  RH  100%=      5-min Rain = 0
KGU1 071036Z 05004KT 12/11 A3023 RMK A01 T01170112  RH  100%=      5-min Rain = 0
KGU1 071037Z 05004KT 12/11 A3023 RMK A01 T01170112  RH  100%=      5-min Rain = 0
KGU1 071038Z 05004KT 12/11 A3023 RMK A01 T01170112  RH  100%=      5-min Rain = 0
KGU1 071039Z 05004KT 12/11 A3023 RMK A01 T01170112  RH  100%=      5-min Rain = 0
KGU1 071040Z 05004KT 12/11 A3022 RMK A01 T01170112  RH  100%=      5-min Rain = 0
KGU1 071041Z 05004KT 12/11 A3022 RMK A01 T01170112  RH  100%=      5-min Rain = 0
KGU1 071042Z 05003KT 12/11 A3023 RMK A01 T01170112  RH  100%=      5-min Rain = 0
KGU1 071043Z 05004KT 12/11 A3023 RMK A01 T01170111  RH  100%=      5-min Rain = 0
KGU1 071044Z 05003KT 12/11 A3023 RMK A01 T01170111  RH  100%=      5-min Rain = 0
KGU1 071045Z 06003KT 12/11 A3023 RMK A01 T01170111  RH  100%=      5-min Rain = 0
KGU1 071046Z 06004KT 12/11 A3023 RMK A01 T01170111  RH  100%=      5-min Rain = 0
KGU1 071047Z 05003KT 12/11 A3023 RMK A01 T01170111  RH  100%=      5-min Rain = 0
KGU1 071048Z 06003KT 12/11 A3023 RMK A01 T01170111  RH  100%=      5-min Rain = 0
KGU1 071049Z 06004KT 12/11 A3023 RMK A01 T01170111  RH  100%=      5-min Rain = 0
KGU1 071050Z 06004KT 12/11 A3023 RMK A01 T01170111  RH  100%=      5-min Rain = 0
KGU1 071051Z 06003KT 12/11 A3023 RMK A01 T01170111  RH  100%=      5-min Rain = 0
KGU1 071052Z 06004KT 12/11 A3023 RMK A01 T01170111  RH  100%=      5-min Rain = 0
KGU1 071053Z 07004KT 12/11 A3023 RMK A01 T01170111  RH  100%=      5-min Rain = 0
KGU1 071054Z 06003KT 12/11 A3023 RMK A01 T01170111  RH  100%=      5-min Rain = 0
KGU1 071055Z 06003KT 12/11 A3023 RMK A01 T01170111  RH  100%=      5-min Rain = 0
KGU1 071056Z 05003KT 12/11 A3023 RMK A01 T01170111  RH  100%=      5-min Rain = 0
KGU1 071057Z 04004KT 12/11 A3023 RMK A01 T01170111  RH  100%=      5-min Rain = 0
KGU1 071058Z 04003KT 12/11 A3023 RMK A01 T01170111  RH  100%=      5-min Rain = 0
KGU1 071059Z 04003KT 12/11 A3023 RMK A01 T01170111  RH  100%=      5-min Rain = 0
KGU1 071100Z 04004KT 12/11 A3023 RMK A01 T01170111  RH  100%=      5-min Rain = 0
KGU1 071101Z 04003KT 12/11 A3023 RMK A01 T01170111  RH  100%=      5-min Rain = 0
KGU1 071102Z 04003KT 12/11 A3023 RMK A01 T01170111  RH  100%=      5-min Rain = 0
KGU1 071103Z 04003KT 12/11 A3023 RMK A01 T01170111  RH  100%=      5-min Rain = 0
KGU1 071104Z 03003KT 12/11 A3023 RMK A01 T01170111  RH  100%=      5-min Rain = 0
KGU1 071105Z 03003KT 12/11 A3023 RMK A01 T01170111  RH  100%=      5-min Rain = 0
KGU1 071106Z 03003KT 12/11 A3023 RMK A01 T01170111  RH  100%=      5-min Rain = 0
KGU1 071107Z 04003KT 12/11 A3023 RMK A01 T01170111  RH  100%=      5-min Rain = 0
KGU1 071108Z 04003KT 12/11 A3023 RMK A01 T01160111  RH  100%=      5-min Rain = 0
KGU1 071109Z 04003KT 12/11 A3023 RMK A01 T01160111  RH  100%=      5-min Rain = 0
KGU1 071110Z 04003KT 12/11 A3023 RMK A01 T01160111  RH  100%=      5-min Rain = 0
KGU1 071111Z 03003KT 12/11 A3023 RMK A01 T01160111  RH  100%=      5-min Rain = 0
KGU1 071112Z 03003KT 12/11 A3023 RMK A01 T01160111  RH  100%=      5-min Rain = 0
KGU1 071113Z 03003KT 12/11 A3024 RMK A01 T01160111  RH  100%=      5-min Rain = 0
KGU1 071114Z 04003KT 12/11 A3024 RMK A01 T01170111  RH  100%=      5-min Rain = 0
KGU1 071115Z 04003KT 12/11 A3024 RMK A01 T01170111  RH  100%=      5-min Rain = 0
KGU1 071116Z 05003KT 12/11 A3024 RMK A01 T01170111  RH  100%=      5-min Rain = 0
KGU1 071117Z 05003KT 12/11 A3024 RMK A01 T01170111  RH  100%=      5-min Rain = 0
KGU1 071118Z 05003KT 12/11 A3024 RMK A01 T01170111  RH  100%=      5-min Rain = 0
KGU1 071119Z 05003KT 12/11 A3024 RMK A01 T01170111  RH  100%=      5-min Rain = 0
KGU1 071120Z 05003KT 12/11 A3024 RMK A01 T01170111  RH  100%=      5-min Rain = 0
KGU1 071121Z 05003KT 12/11 A3024 RMK A01 T01170111  RH  100%=      5-min Rain = 0
KGU1 071122Z 04003KT 12/11 A3024 RMK A01 T01170111  RH  100%=      5-min Rain = 0
KGU1 071123Z 03003KT 12/11 A3024 RMK A01 T01170111  RH  100%=      5-min Rain = 0
KGU1 071124Z 03002KT 12/11 A3024 RMK A01 T01170111  RH  100%=      5-min Rain = 0
KGU1 071125Z 02002KT 12/11 A3024 RMK A01 T01170111  RH  100%=      5-min Rain = 0
KGU1 071126Z 02003KT 12/11 A3024 RMK A01 T01170111  RH  100%=      5-min Rain = 0
KGU1 071127Z 02003KT 12/11 A3024 RMK A01 T01170111  RH  100%=      5-min Rain = 0
KGU1 071128Z 03002KT 12/11 A3024 RMK A01 T01170111  RH  100%=      5-min Rain = 0
KGU1 071129Z 03003KT 12/11 A3024 RMK A01 T01170111  RH  100%=      5-min Rain = 0
KGU1 071130Z 04003KT 12/11 A3024 RMK A01 T01170111  RH  100%=      5-min Rain = 0
KGU1 071131Z 04003KT 12/11 A3024 RMK A01 T01170111  RH  100%=      5-min Rain = 0
KGU1 071132Z 05003KT 12/11 A3024 RMK A01 T01170111  RH  100%=      5-min Rain = 0
KGU1 071133Z 05003KT 12/11 A3024 RMK A01 T01170111  RH  100%=      5-min Rain = 0
KGU1 071134Z 05003KT 12/11 A3024 RMK A01 T01170112  RH  100%=      5-min Rain = 0
KGU1 071135Z 06003KT 12/11 A3024 RMK A01 T01170112  RH  100%=      5-min Rain = 0
KGU1 071136Z 07003KT 12/11 A3024 RMK A01 T01170112  RH  100%=      5-min Rain = 0
KGU1 071137Z 07003KT 12/11 A3024 RMK A01 T01170112  RH  100%=      5-min Rain = 0
KGU1 071138Z 07003KT 12/11 A3024 RMK A01 T01170112  RH  100%=      5-min Rain = 0
KGU1 071139Z 07003KT 12/11 A3024 RMK A01 T01170112  RH  100%=      5-min Rain = 0
KGU1 071140Z 06003KT 12/11 A3024 RMK A01 T01170112  RH  100%=      5-min Rain = 0
KGU1 071141Z 06003KT 12/11 A3024 RMK A01 T01170112  RH  100%=      5-min Rain = 0
KGU1 071142Z 05002KT 12/11 A3025 RMK A01 T01170112  RH  100%=      5-min Rain = 0
KGU1 071143Z 04002KT 12/11 A3025 RMK A01 T01170112  RH  100%=      5-min Rain = 0
KGU1 071144Z 05003KT 12/11 A3025 RMK A01 T01170112  RH  100%=      5-min Rain = 0
KGU1 071145Z 05003KT 12/11 A3025 RMK A01 T01180112  RH  100%=      5-min Rain = 0
KGU1 071146Z 05003KT 12/11 A3025 RMK A01 T01180113  RH  100%=      5-min Rain = 0
KGU1 071147Z 06004KT 12/11 A3025 RMK A01 T01180113  RH  100%=      5-min Rain = 0
KGU1 071148Z 06004KT 12/11 A3025 RMK A01 T01180113  RH  100%=      5-min Rain = 0
KGU1 071149Z 06004KT 12/11 A3025 RMK A01 T01180113  RH  100%=      5-min Rain = 0
KGU1 071150Z 06003KT 12/11 A3025 RMK A01 T01180113  RH  100%=      5-min Rain = 0
KGU1 071151Z 06003KT 12/11 A3025 RMK A01 T01180113  RH  100%=      5-min Rain = 0
KGU1 071152Z 06004KT 12/11 A3025 RMK A01 T01180113  RH  100%=      5-min Rain = 0
KGU1 071153Z 05003KT 12/11 A3025 RMK A01 T01180113  RH  100%=      5-min Rain = 0
KGU1 071154Z 06004KT 12/11 A3025 RMK A01 T01180113  RH  100%=      5-min Rain = 0
KGU1 071155Z 06003KT 12/11 A3025 RMK A01 T01190113  RH  100%=      5-min Rain = 0
KGU1 071156Z 05002KT 12/11 A3025 RMK A01 T01190113  RH  100%=      5-min Rain = 0
KGU1 071157Z 06002KT 12/11 A3025 RMK A01 T01180113  RH  100%=      5-min Rain = 0
KGU1 071158Z 06003KT 12/11 A3025 RMK A01 T01180113  RH  100%=      5-min Rain = 0
KGU1 071159Z 06003KT 12/11 A3025 RMK A01 T01180113  RH  100%=      5-min Rain = 0
KGU1 071200Z 07004KT 12/11 A3025 RMK A01 T01180113  RH  100%=      5-min Rain = 0
KGU1 071201Z 06003KT 12/11 A3025 RMK A01 T01180113  RH  100%=      5-min Rain = 0
KGU1 071202Z 06004KT 12/11 A3025 RMK A01 T01180113  RH  100%=      5-min Rain = 0
KGU1 071203Z 06003KT 12/11 A3026 RMK A01 T01180113  RH  100%=      5-min Rain = 0
KGU1 071204Z 05004KT 12/11 A3026 RMK A01 T01180113  RH  100%=      5-min Rain = 0
KGU1 071205Z 06003KT 12/11 A3026 RMK A01 T01180113  RH  100%=      5-min Rain = 0
KGU1 071206Z 06004KT 12/11 A3026 RMK A01 T01180113  RH  100%=      5-min Rain = 0
KGU1 071207Z 06003KT 12/11 A3026 RMK A01 T01180113  RH  100%=      5-min Rain = 0
KGU1 071208Z 06003KT 12/11 A3026 RMK A01 T01180113  RH  100%=      5-min Rain = 0
KGU1 071209Z 07003KT 12/11 A3026 RMK A01 T01180113  RH  100%=      5-min Rain = 0
KGU1 071210Z 07003KT 12/11 A3026 RMK A01 T01180113  RH  100%=      5-min Rain = 0
KGU1 071211Z 07004KT 12/11 A3026 RMK A01 T01180113  RH  100%=      5-min Rain = 0
KGU1 071212Z 06003KT 12/11 A3026 RMK A01 T01180113  RH  100%=      5-min Rain = 0
KGU1 071213Z 07003KT 12/11 A3026 RMK A01 T01190113  RH  100%=      5-min Rain = 0
KGU1 071214Z 06003KT 12/11 A3026 RMK A01 T01190113  RH  100%=      5-min Rain = 0
KGU1 071215Z 07003KT 12/11 A3026 RMK A01 T01180113  RH  100%=      5-min Rain = 0
KGU1 071216Z 06003KT 12/11 A3026 RMK A01 T01190113  RH  100%=      5-min Rain = 0
KGU1 071217Z 06004KT 12/11 A3026 RMK A01 T01180113  RH  100%=      5-min Rain = 0
KGU1 071218Z 06004KT 12/11 A3026 RMK A01 T01180113  RH  100%=      5-min Rain = 0
KGU1 071219Z 06004KT 12/11 A3026 RMK A01 T01180113  RH  100%=      5-min Rain = 0
KGU1 071220Z 07004KT 12/11 A3026 RMK A01 T01180113  RH  100%=      5-min Rain = 0
KGU1 071221Z 07004KT 12/11 A3026 RMK A01 T01180113  RH  100%=      5-min Rain = 0
KGU1 071222Z 06005KT 12/11 A3026 RMK A01 T01180113  RH  100%=      5-min Rain = 0
KGU1 071223Z 06004KT 12/11 A3026 RMK A01 T01180113  RH  100%=      5-min Rain = 0
KGU1 071224Z 06004KT 12/11 A3026 RMK A01 T01180113  RH  100%=      5-min Rain = 0
KGU1 071225Z 06004KT 12/11 A3026 RMK A01 T01180113  RH  100%=      5-min Rain = 0
KGU1 071226Z 05004KT 12/11 A3026 RMK A01 T01180113  RH  100%=      5-min Rain = 0
KGU1 071227Z 06004KT 12/11 A3026 RMK A01 T01180113  RH  100%=      5-min Rain = 0
KGU1 071228Z 06004KT 12/11 A3026 RMK A01 T01190113  RH  100%=      5-min Rain = 0
KGU1 071229Z 06003KT 12/11 A3026 RMK A01 T01190113  RH  100%=      5-min Rain = 0
KGU1 071230Z 06005KT 12/11 A3026 RMK A01 T01190113  RH  100%=      5-min Rain = 0
KGU1 071231Z 05005KT 12/11 A3026 RMK A01 T01190113  RH  100%=      5-min Rain = 0
KGU1 071232Z 05005KT 12/11 A3026 RMK A01 T01190113  RH  100%=      5-min Rain = 0
KGU1 071233Z 06004KT 12/11 A3026 RMK A01 T01190113  RH  100%=      5-min Rain = 0
KGU1 071234Z 06005KT 12/11 A3026 RMK A01 T01190113  RH  100%=      5-min Rain = 0
KGU1 071235Z 06005KT 12/11 A3026 RMK A01 T01190113  RH  100%=      5-min Rain = 0
KGU1 071236Z 06004KT 12/11 A3026 RMK A01 T01190113  RH  100%=      5-min Rain = 0
KGU1 071237Z 07006KT 12/11 A3026 RMK A01 T01190113  RH  100%=      5-min Rain = 0
KGU1 071238Z 06005KT 12/11 A3026 RMK A01 T01190113  RH  100%=      5-min Rain = 0
KGU1 071239Z 06005KT 12/11 A3026 RMK A01 T01190113  RH  100%=      5-min Rain = 0
KGU1 071240Z 07005KT 12/11 A3026 RMK A01 T01190113  RH  100%=      5-min Rain = 0
KGU1 071241Z 07006KT 12/11 A3026 RMK A01 T01190113  RH  100%=      5-min Rain = 0
KGU1 071242Z 07004KT 12/11 A3027 RMK A01 T01190113  RH  100%=      5-min Rain = 0
KGU1 071243Z 07004KT 12/11 A3027 RMK A01 T01190113  RH  100%=      5-min Rain = 0
KGU1 071244Z 06004KT 12/11 A3027 RMK A01 T01190113  RH  100%=      5-min Rain = 0
KGU1 071245Z 06004KT 12/11 A3027 RMK A01 T01190113  RH  100%=      5-min Rain = 0
KGU1 071246Z 07006KT 12/11 A3027 RMK A01 T01190113  RH  100%=      5-min Rain = 0
KGU1 071247Z 07006KT 12/11 A3028 RMK A01 T01190113  RH  100%=      5-min Rain = 0
KGU1 071248Z 07005KT 12/11 A3028 RMK A01 T01180113  RH  100%=      5-min Rain = 0
KGU1 071249Z 07005KT 12/11 A3028 RMK A01 T01180113  RH  100%=      5-min Rain = 0
KGU1 071250Z 07005KT 12/11 A3028 RMK A01 T01190113  RH  100%=      5-min Rain = 0
KGU1 071251Z 07004KT 12/11 A3028 RMK A01 T01190113  RH  100%=      5-min Rain = 0
KGU1 071252Z 07004KT 12/11 A3028 RMK A01 T01190113  RH  100%=      5-min Rain = 0
KGU1 071253Z 07004KT 12/11 A3028 RMK A01 T01190113  RH  100%=      5-min Rain = 0
KGU1 071254Z 06004KT 12/11 A3028 RMK A01 T01190113  RH  100%=      5-min Rain = 0
KGU1 071255Z 07005KT 12/11 A3028 RMK A01 T01180113  RH  100%=      5-min Rain = 0
KGU1 071256Z 07005KT 12/11 A3028 RMK A01 T01190113  RH  100%=      5-min Rain = 0
KGU1 071257Z 07005KT 12/11 A3028 RMK A01 T01180113  RH  100%=      5-min Rain = 0
KGU1 071258Z 07005KT 12/11 A3028 RMK A01 T01190113  RH  100%=      5-min Rain = 0
KGU1 071259Z 08005KT 12/11 A3028 RMK A01 T01190113  RH  100%=      5-min Rain = 0
KGU1 071300Z 09006KT 12/11 A3028 RMK A01 T01190113  RH  100%=      5-min Rain = 0
KGU1 071301Z 08006KT 12/11 A3028 RMK A01 T01190113  RH  100%=      5-min Rain = 0
KGU1 071302Z 08005KT 12/11 A3028 RMK A01 T01190113  RH  100%=      5-min Rain = 0
KGU1 071303Z 09006KT 12/11 A3028 RMK A01 T01190113  RH  100%=      5-min Rain = 0
KGU1 071304Z 09007KT 12/11 A3028 RMK A01 T01180113  RH  100%=      5-min Rain = 0
KGU1 071305Z 10007KT 12/11 A3028 RMK A01 T01180113  RH  100%=      5-min Rain = 0
KGU1 071306Z 10007KT 12/11 A3028 RMK A01 T01180113  RH  100%=      5-min Rain = 0
KGU1 071307Z 10006KT 12/11 A3028 RMK A01 T01180113  RH  100%=      5-min Rain = 0
KGU1 071308Z 10005KT 12/11 A3028 RMK A01 T01190113  RH  100%=      5-min Rain = 0
KGU1 071309Z 10006KT 12/11 A3028 RMK A01 T01190113  RH  100%=      5-min Rain = 0
KGU1 071310Z 10006KT 12/11 A3028 RMK A01 T01190113  RH  100%=      5-min Rain = 0
KGU1 071311Z 11007KT 12/11 A3028 RMK A01 T01180113  RH  100%=      5-min Rain = 0
KGU1 071312Z 10007KT 12/11 A3028 RMK A01 T01180113  RH  100%=      5-min Rain = 0
KGU1 071313Z 11006KT 12/11 A3028 RMK A01 T01170112  RH  100%=      5-min Rain = 0
KGU1 071314Z 10006KT 12/11 A3028 RMK A01 T01170112  RH  100%=      5-min Rain = 0
KGU1 071315Z 10007KT 12/11 A3028 RMK A01 T01170112  RH  100%=      5-min Rain = 0
KGU1 071316Z 11006KT 12/11 A3028 RMK A01 T01170111  RH  100%=      5-min Rain = 0
KGU1 071317Z 11006KT 12/11 A3028 RMK A01 T01170111  RH  100%=      5-min Rain = 0
KGU1 071318Z 10006KT 12/11 A3028 RMK A01 T01170111  RH  100%=      5-min Rain = 0
KGU1 071319Z 10006KT 12/11 A3028 RMK A01 T01170111  RH  100%=      5-min Rain = 0
KGU1 071320Z 10007KT 12/11 A3028 RMK A01 T01160111  RH  100%=      5-min Rain = 0
KGU1 071321Z 10007KT 12/11 A3028 RMK A01 T01160110  RH  100%=      5-min Rain = 0
KGU1 071322Z 10007KT 12/11 A3028 RMK A01 T01150110  RH  100%=      5-min Rain = 0
KGU1 071323Z 10006KT 12/11 A3028 RMK A01 T01150110  RH  100%=      5-min Rain = 0
KGU1 071324Z 11006KT 12/11 A3028 RMK A01 T01150109  RH  100%=      5-min Rain = 0
KGU1 071325Z 10008KT 11/11 A3028 RMK A01 T01140109  RH  100%=      5-min Rain = 0
KGU1 071326Z 11009KT 11/11 A3028 RMK A01 T01120107  RH  100%=      5-min Rain = 0
KGU1 071327Z 10008KT 11/11 A3028 RMK A01 T01100105  RH  100%=      5-min Rain = 0
KGU1 071328Z 10008KT 11/11 A3029 RMK A01 T01100105  RH  100%=      5-min Rain = 0
KGU1 071329Z 10009KT 11/10 A3029 RMK A01 T01090104  RH  100%=      5-min Rain = 0
KGU1 071330Z 10009KT 11/10 A3029 RMK A01 T01090104  RH  100%=      5-min Rain = 0
KGU1 071331Z 10009KT 11/10 A3029 RMK A01 T01080103  RH  100%=      5-min Rain = 0
KGU1 071332Z 10008KT 11/10 A3029 RMK A01 T01080103  RH  100%=      5-min Rain = 0
KGU1 071333Z 10006KT 11/10 A3029 RMK A01 T01080103  RH  100%=      5-min Rain = 0
KGU1 071334Z 10006KT 11/10 A3029 RMK A01 T01080103  RH  100%=      5-min Rain = 0
KGU1 071335Z 09009KT 11/10 A3029 RMK A01 T01080103  RH  100%=      5-min Rain = 0
KGU1 071336Z 09007KT 11/10 A3029 RMK A01 T01070103  RH  100%=      5-min Rain = 0
KGU1 071337Z 08006KT 11/10 A3029 RMK A01 T01080103  RH  100%=      5-min Rain = 0
KGU1 071338Z 08006KT 11/10 A3029 RMK A01 T01080103  RH  100%=      5-min Rain = 0
KGU1 071339Z 08004KT 11/10 A3029 RMK A01 T01080103  RH  100%=      5-min Rain = 0
KGU1 071340Z 07005KT 11/10 A3029 RMK A01 T01080103  RH  100%=      5-min Rain = 0
KGU1 071341Z 07005KT 11/10 A3029 RMK A01 T01080103  RH  100%=      5-min Rain = 0
KGU1 071342Z 07005KT 11/10 A3029 RMK A01 T01080103  RH  100%=      5-min Rain = 0
KGU1 071343Z 07006KT 11/10 A3029 RMK A01 T01080103  RH  100%=      5-min Rain = 0
KGU1 071344Z 08006KT 11/10 A3029 RMK A01 T01080103  RH  100%=      5-min Rain = 0
KGU1 071345Z 09005KT 11/10 A3029 RMK A01 T01070103  RH  100%=      5-min Rain = 0
KGU1 071346Z 08005KT 11/10 A3029 RMK A01 T01080103  RH  100%=      5-min Rain = 0
KGU1 071347Z 09005KT 11/10 A3029 RMK A01 T01080103  RH  100%=      5-min Rain = 0
KGU1 071348Z 08004KT 11/10 A3029 RMK A01 T01080103  RH  100%=      5-min Rain = 0
KGU1 071349Z 08002KT 11/10 A3029 RMK A01 T01080103  RH  100%=      5-min Rain = 0
KGU1 071350Z 08003KT 11/10 A3029 RMK A01 T01080103  RH  100%=      5-min Rain = 0
KGU1 071351Z 09002KT 11/10 A3029 RMK A01 T01080103  RH  100%=      5-min Rain = 0
KGU1 071352Z 09002KT 11/10 A303 RMK A01 T01080103  RH  100%=      5-min Rain = 0
KGU1 071353Z 07000KT 11/10 A303 RMK A01 T01080103  RH  100%=      5-min Rain = 0
KGU1 071354Z 04000KT 11/10 A303 RMK A01 T01080103  RH  100%=      5-min Rain = 0
KGU1 071355Z 30001KT 11/10 A303 RMK A01 T01080103  RH  100%=      5-min Rain = 0
KGU1 071356Z 31002KT 11/10 A303 RMK A01 T01080103  RH  100%=      5-min Rain = 0
KGU1 071357Z 30002KT 11/10 A303 RMK A01 T01080103  RH  100%=      5-min Rain = 0
KGU1 071358Z 29002KT 11/10 A303 RMK A01 T01090104  RH  100%=      5-min Rain = 0
KGU1 071359Z 31002KT 11/10 A303 RMK A01 T01080103  RH  100%=      5-min Rain = 0
KGU1 071400Z 31001KT 11/10 A303 RMK A01 T01080103  RH  100%=      5-min Rain = 0
KGU1 071401Z 29001KT 11/10 A303 RMK A01 T01080103  RH  100%=      5-min Rain = 0
KGU1 071402Z 31001KT 11/10 A303 RMK A01 T01080103  RH  100%=      5-min Rain = 0
KGU1 071403Z 32001KT 11/10 A303 RMK A01 T01080103  RH  100%=      5-min Rain = 0
KGU1 071404Z 34001KT 11/10 A303 RMK A01 T01080103  RH  100%=      5-min Rain = 0
KGU1 071405Z 02000KT 11/10 A3031 RMK A01 T01090104  RH  100%=      5-min Rain = 0
KGU1 071406Z 08001KT 11/10 A3031 RMK A01 T01090104  RH  100%=      5-min Rain = 0
KGU1 071407Z 10003KT 11/10 A3031 RMK A01 T01090104  RH  100%=      5-min Rain = 0
KGU1 071408Z 10004KT 11/10 A3031 RMK A01 T01090104  RH  100%=      5-min Rain = 0
KGU1 071409Z 11005KT 11/11 A3031 RMK A01 T01100105  RH  100%=      5-min Rain = 0
KGU1 071410Z 11005KT 11/10 A3031 RMK A01 T01090104  RH  100%=      5-min Rain = 0
KGU1 071411Z 11006KT 11/11 A3031 RMK A01 T01090105  RH  100%=      5-min Rain = 0
KGU1 071412Z 11006KT 11/10 A3031 RMK A01 T01090104  RH  100%=      5-min Rain = 0
KGU1 071413Z 11006KT 11/10 A3031 RMK A01 T01090104  RH  100%=      5-min Rain = 0
KGU1 071414Z 12007KT 11/10 A3031 RMK A01 T01080104  RH  100%=      5-min Rain = 0
KGU1 071415Z 12009KT 10/10 A3031 RMK A01 T01040099  RH  100%=      5-min Rain = 0
KGU1 071416Z 11009KT 10/09 A3031 RMK A01 T00980094  RH  100%=      5-min Rain = 0
KGU1 071417Z 11010KT 10/09 A3031 RMK A01 T00950091  RH  100%=      5-min Rain = 0
KGU1 071418Z 12009KT 09/09 A3031 RMK A01 T00920087  RH  100%=      5-min Rain = 0
KGU1 071419Z 13009KT 09/08 A3031 RMK A01 T00860081  RH  100%=      5-min Rain = 0
KGU1 071420Z 13008KT 08/08 A3032 RMK A01 T00790075  RH  100%=      5-min Rain = 0
KGU1 071421Z 13010KT 08/07 A3032 RMK A01 T00750072  RH  100%=      5-min Rain = 0
KGU1 071422Z 13009KT 07/07 A3032 RMK A01 T00730069  RH  100%=      5-min Rain = 0
KGU1 071423Z 13010KT 07/07 A3032 RMK A01 T00690066  RH  100%=      5-min Rain = 0
KGU1 071424Z 13009KT 07/06 A3032 RMK A01 T00670063  RH  100%=      5-min Rain = 0
KGU1 071425Z 12009KT 07/06 A3032 RMK A01 T00650062  RH  100%=      5-min Rain = 0
KGU1 071426Z 11007KT 06/06 A3032 RMK A01 T00640060  RH  100%=      5-min Rain = 0
KGU1 071427Z 11006KT 06/06 A3033 RMK A01 T00640060  RH  100%=      5-min Rain = 0
KGU1 071428Z 10004KT 06/06 A3033 RMK A01 T00640060  RH  100%=      5-min Rain = 0
KGU1 071429Z 09005KT 06/06 A3033 RMK A01 T00630060  RH  100%=      5-min Rain = 0
KGU1 071430Z 09004KT 06/06 A3033 RMK A01 T00630060  RH  100%=      5-min Rain = 0
KGU1 071431Z 06004KT 06/06 A3033 RMK A01 T00620059  RH  100%=      5-min Rain = 0
KGU1 071432Z 03003KT 06/06 A3033 RMK A01 T00600057  RH  100%=      5-min Rain = 0
KGU1 071433Z 02004KT 06/06 A3034 RMK A01 T00610058  RH  100%=      5-min Rain = 0
KGU1 071434Z 03003KT 06/06 A3034 RMK A01 T00620059  RH  100%=      5-min Rain = 0
KGU1 071435Z 04002KT 06/06 A3034 RMK A01 T00620059  RH  100%=      5-min Rain = 0
KGU1 071436Z 08004KT 06/06 A3034 RMK A01 T00620059  RH  100%=      5-min Rain = 0
KGU1 071437Z 09004KT 06/06 A3034 RMK A01 T00610058  RH  100%=      5-min Rain = 0
KGU1 071438Z 11004KT 06/06 A3034 RMK A01 T00610058  RH  100%=      5-min Rain = 0
KGU1 071439Z 11004KT 06/06 A3034 RMK A01 T00610058  RH  100%=      5-min Rain = 0
KGU1 071440Z 11002KT 06/06 A3034 RMK A01 T00600057  RH  100%=      5-min Rain = 0
KGU1 071441Z 09001KT 06/06 A3034 RMK A01 T00600056  RH  100%=      5-min Rain = 0
KGU1 071442Z 10002KT 06/06 A3034 RMK A01 T00600057  RH  100%=      5-min Rain = 0
KGU1 071443Z 09003KT 06/06 A3034 RMK A01 T00600056  RH  100%=      5-min Rain = 0
KGU1 071444Z 10004KT 06/06 A3034 RMK A01 T00600056  RH  100%=      5-min Rain = 0
KGU1 071445Z 10004KT 06/06 A3034 RMK A01 T00600057  RH  100%=      5-min Rain = 0
KGU1 071446Z 11004KT 06/06 A3034 RMK A01 T00600056  RH  100%=      5-min Rain = 0
KGU1 071447Z 10005KT 06/06 A3034 RMK A01 T00610057  RH  100%=      5-min Rain = 0
KGU1 071448Z 11005KT 06/06 A3034 RMK A01 T00600057  RH  100%=      5-min Rain = 0
KGU1 071449Z 12006KT 06/06 A3034 RMK A01 T00600057  RH  100%=      5-min Rain = 0
KGU1 071450Z 11006KT 06/06 A3034 RMK A01 T00590056  RH  100%=      5-min Rain = 0
KGU1 071451Z 11005KT 06/06 A3035 RMK A01 T00580055  RH  100%=      5-min Rain = 0
KGU1 071452Z 11003KT 06/06 A3035 RMK A01 T00580055  RH  100%=      5-min Rain = 0
KGU1 071453Z 10003KT 06/06 A3035 RMK A01 T00580055  RH  100%=      5-min Rain = 0
KGU1 071454Z 11005KT 06/06 A3035 RMK A01 T00580055  RH  100%=      5-min Rain = 0
KGU1 071455Z 12005KT 06/05 A3035 RMK A01 T00560053  RH  100%=      5-min Rain = 0
KGU1 071456Z 12006KT 06/05 A3035 RMK A01 T00560053  RH  100%=      5-min Rain = 0
KGU1 071457Z 11005KT 06/05 A3035 RMK A01 T00550052  RH  100%=      5-min Rain = 0
KGU1 071458Z 10004KT 05/05 A3035 RMK A01 T00540051  RH  100%=      5-min Rain = 0
KGU1 071459Z 11004KT 05/05 A3035 RMK A01 T00540051  RH  100%=      5-min Rain = 0
KGU1 071500Z 12005KT 05/05 A3035 RMK A01 T00540051  RH  100%=      5-min Rain = 0
KGU1 071501Z 12006KT 05/05 A3035 RMK A01 T00540050  RH  100%=      5-min Rain = 0
KGU1 071502Z 11005KT 05/05 A3035 RMK A01 T00540051  RH  100%=      5-min Rain = 0
KGU1 071503Z 11005KT 05/05 A3036 RMK A01 T00520049  RH  100%=      5-min Rain = 0
KGU1 071504Z 11006KT 05/05 A3036 RMK A01 T00520049  RH  100%=      5-min Rain = 0
KGU1 071505Z 11005KT 05/05 A3036 RMK A01 T00510048  RH  100%=      5-min Rain = 0
KGU1 071506Z 11006KT 05/05 A3036 RMK A01 T00510048  RH  100%=      5-min Rain = 0
KGU1 071507Z 11006KT 05/05 A3036 RMK A01 T00510048  RH  100%=      5-min Rain = 0
KGU1 071508Z 11007KT 05/05 A3036 RMK A01 T00500047  RH  100%=      5-min Rain = 0
KGU1 071509Z 11007KT 05/05 A3036 RMK A01 T00500047  RH  100%=      5-min Rain = 0
KGU1 071510Z 11007KT 05/05 A3036 RMK A01 T00510048  RH  100%=      5-min Rain = 0
KGU1 071511Z 10007KT 05/05 A3036 RMK A01 T00510048  RH  100%=      5-min Rain = 0
KGU1 071512Z 11006KT 05/05 A3036 RMK A01 T00510048  RH  100%=      5-min Rain = 0
KGU1 071513Z 10006KT 05/05 A3036 RMK A01 T00510048  RH  100%=      5-min Rain = 0
KGU1 071514Z 10007KT 05/05 A3037 RMK A01 T00500047  RH  100%=      5-min Rain = 0
KGU1 071515Z 11005KT 05/05 A3037 RMK A01 T00510048  RH  100%=      5-min Rain = 0
KGU1 071516Z 10006KT 05/05 A3037 RMK A01 T00510048  RH  100%=      5-min Rain = 0
KGU1 071517Z 10005KT 05/05 A3037 RMK A01 T00510048  RH  100%=      5-min Rain = 0
KGU1 071518Z 09005KT 05/05 A3037 RMK A01 T00520049  RH  100%=      5-min Rain = 0
KGU1 071519Z 09004KT 05/05 A3037 RMK A01 T00520049  RH  100%=      5-min Rain = 0
KGU1 071520Z 10003KT 05/05 A3037 RMK A01 T00510048  RH  100%=      5-min Rain = 0
KGU1 071521Z 10002KT 05/05 A3037 RMK A01 T00510048  RH  100%=      5-min Rain = 0
KGU1 071522Z 10002KT 05/05 A3037 RMK A01 T00510048  RH  100%=      5-min Rain = 0
KGU1 071523Z 09001KT 05/05 A3037 RMK A01 T00510048  RH  100%=      5-min Rain = 0
KGU1 071524Z 09003KT 05/05 A3037 RMK A01 T00510048  RH  100%=      5-min Rain = 0
KGU1 071525Z 10003KT 05/05 A3037 RMK A01 T00510048  RH  100%=      5-min Rain = 0
KGU1 071526Z 10004KT 05/05 A3038 RMK A01 T00500047  RH  100%=      5-min Rain = 0
KGU1 071527Z 11003KT 05/05 A3038 RMK A01 T00480045  RH  100%=      5-min Rain = 0
KGU1 071528Z 11003KT 05/05 A3038 RMK A01 T00480045  RH  100%=      5-min Rain = 0
KGU1 071529Z 11003KT 05/04 A3038 RMK A01 T00470044  RH  100%=      5-min Rain = 0
KGU1 071530Z 12004KT 05/05 A3038 RMK A01 T00480045  RH  100%=      5-min Rain = 0
KGU1 071531Z 11004KT 05/05 A3038 RMK A01 T00490046  RH  100%=      5-min Rain = 0
KGU1 071532Z 11004KT 05/05 A3038 RMK A01 T00490047  RH  100%=      5-min Rain = 0
KGU1 071533Z 11005KT 05/05 A3038 RMK A01 T00490046  RH  100%=      5-min Rain = 0
KGU1 071534Z 11004KT 05/04 A3038 RMK A01 T00470044  RH  100%=      5-min Rain = 0
KGU1 071535Z 11004KT 05/04 A3038 RMK A01 T00460044  RH  100%=      5-min Rain = 0
KGU1 071536Z 12004KT 05/04 A3038 RMK A01 T00470044  RH  100%=      5-min Rain = 0
KGU1 071537Z 12004KT 05/04 A3038 RMK A01 T00460043  RH  100%=      5-min Rain = 0
KGU1 071538Z 10004KT 05/04 A3038 RMK A01 T00450042  RH  100%=      5-min Rain = 0
KGU1 071539Z 09004KT 05/04 A3038 RMK A01 T00450042  RH  100%=      5-min Rain = 0
KGU1 071540Z 09004KT 05/04 A3038 RMK A01 T00450042  RH  100%=      5-min Rain = 0
KGU1 071541Z 10004KT 05/04 A3038 RMK A01 T00450042  RH  100%=      5-min Rain = 0
KGU1 071542Z 11004KT 04/04 A3038 RMK A01 T00430040  RH  100%=      5-min Rain = 0
KGU1 071543Z 10004KT 04/04 A3038 RMK A01 T00430040  RH  100%=      5-min Rain = 0.01
KGU1 071544Z 10004KT 04/04 A3038 RMK A01 T00430040  RH  100%=      5-min Rain = 0
KGU1 071545Z 10003KT 04/04 A3038 RMK A01 T00430040  RH  100%=      5-min Rain = 0
KGU1 071546Z 09003KT 04/04 A3039 RMK A01 T00430041  RH  100%=      5-min Rain = 0
KGU1 071547Z 10004KT 04/04 A3039 RMK A01 T00440041  RH  100%=      5-min Rain = 0
KGU1 071548Z 10003KT 04/04 A3039 RMK A01 T00440041  RH  100%=      5-min Rain = 0
KGU1 071549Z 09003KT 04/04 A3039 RMK A01 T00440041  RH  100%=      5-min Rain = 0
KGU1 071550Z 10004KT 04/04 A3039 RMK A01 T00430041  RH  100%=      5-min Rain = 0
KGU1 071551Z 09004KT 04/04 A3039 RMK A01 T00430040  RH  100%=      5-min Rain = 0
KGU1 071552Z 10005KT 04/04 A3039 RMK A01 T00440041  RH  100%=      5-min Rain = 0
KGU1 071553Z 10005KT 04/04 A3039 RMK A01 T00430041  RH  100%=      5-min Rain = 0
KGU1 071554Z 09005KT 04/04 A3039 RMK A01 T00430040  RH  100%=      5-min Rain = 0
KGU1 071555Z 10004KT 04/04 A3039 RMK A01 T00430040  RH  100%=      5-min Rain = 0
KGU1 071556Z 10006KT 04/04 A3039 RMK A01 T00440041  RH  100%=      5-min Rain = 0
KGU1 071557Z 11006KT 04/04 A3039 RMK A01 T00430040  RH  100%=      5-min Rain = 0
KGU1 071558Z 12005KT 04/04 A3039 RMK A01 T00420039  RH  100%=      5-min Rain = 0
KGU1 071559Z 10005KT 04/04 A3039 RMK A01 T00430040  RH  100%=      5-min Rain = 0
KGU1 071600Z 10005KT 04/04 A3039 RMK A01 T00420039  RH  100%=      5-min Rain = 0
KGU1 071601Z 09006KT 04/04 A3039 RMK A01 T00400038  RH  100%=      5-min Rain = 0
KGU1 071602Z 10005KT 04/04 A3039 RMK A01 T00400037  RH  100%=      5-min Rain = 0
KGU1 071603Z 09004KT 04/04 A3039 RMK A01 T00400038  RH  100%=      5-min Rain = 0
KGU1 071604Z 09004KT 04/04 A3039 RMK A01 T00410038  RH  100%=      5-min Rain = 0
KGU1 071605Z 09005KT 04/04 A3039 RMK A01 T00400038  RH  100%=      5-min Rain = 0
KGU1 071606Z 09004KT 04/04 A3039 RMK A01 T00380036  RH  100%=      5-min Rain = 0
KGU1 071607Z 09004KT 04/04 A3039 RMK A01 T00380035  RH  100%=      5-min Rain = 0
KGU1 071608Z 09005KT 04/04 A3039 RMK A01 T00380036  RH  100%=      5-min Rain = 0
KGU1 071609Z 09005KT 04/04 A3039 RMK A01 T00390037  RH  100%=      5-min Rain = 0
KGU1 071610Z 10005KT 04/04 A3039 RMK A01 T00390036  RH  100%=      5-min Rain = 0
KGU1 071611Z 09006KT 04/03 A3039 RMK A01 T00360034  RH  100%=      5-min Rain = 0
KGU1 071612Z 09005KT 04/03 A3039 RMK A01 T00360034  RH  100%=      5-min Rain = 0
KGU1 071613Z 09006KT 04/03 A3039 RMK A01 T00360033  RH  100%=      5-min Rain = 0
KGU1 071614Z 08006KT 04/03 A3039 RMK A01 T00350033  RH  100%=      5-min Rain = 0
KGU1 071615Z 09005KT 03/03 A3039 RMK A01 T00340031  RH  100%=      5-min Rain = 0
KGU1 071616Z 08006KT 03/03 A3039 RMK A01 T00340031  RH  100%=      5-min Rain = 0
KGU1 071617Z 09006KT 03/03 A3039 RMK A01 T00340031  RH  100%=      5-min Rain = 0
KGU1 071618Z 09005KT 03/03 A3039 RMK A01 T00330031  RH  100%=      5-min Rain = 0.01
KGU1 071619Z 09004KT 03/03 A3039 RMK A01 T00340032  RH  100%=      5-min Rain = 0
KGU1 071620Z 08005KT 04/03 A3039 RMK A01 T00350032  RH  100%=      5-min Rain = 0
KGU1 071621Z 08005KT 03/03 A3039 RMK A01 T00340031  RH  100%=      5-min Rain = 0
KGU1 071622Z 07006KT 03/03 A3039 RMK A01 T00340032  RH  100%=      5-min Rain = 0
KGU1 071623Z 08006KT 03/03 A3039 RMK A01 T00330030  RH  100%=      5-min Rain = 0
KGU1 071624Z 08005KT 03/03 A3039 RMK A01 T00330030  RH  100%=      5-min Rain = 0
KGU1 071625Z 08005KT 03/03 A3039 RMK A01 T00330030  RH  100%=      5-min Rain = 0
KGU1 071626Z 09005KT 03/03 A3039 RMK A01 T00320030  RH  100%=      5-min Rain = 0
KGU1 071627Z 09006KT 03/03 A3039 RMK A01 T00330031  RH  100%=      5-min Rain = 0
KGU1 071628Z 09006KT 03/03 A3039 RMK A01 T00340031  RH  100%=      5-min Rain = 0
KGU1 071629Z 08006KT 03/03 A3039 RMK A01 T00330030  RH  100%=      5-min Rain = 0
KGU1 071630Z 09006KT 03/03 A3039 RMK A01 T00320029  RH  100%=      5-min Rain = 0
KGU1 071631Z 08006KT 03/03 A3039 RMK A01 T00330030  RH  100%=      5-min Rain = 0
KGU1 071632Z 08005KT 03/03 A3039 RMK A01 T00330031  RH  100%=      5-min Rain = 0
KGU1 071633Z 08006KT 03/03 A3039 RMK A01 T00330031  RH  100%=      5-min Rain = 0
KGU1 071634Z 08006KT 03/03 A3039 RMK A01 T00320030  RH  100%=      5-min Rain = 0
KGU1 071635Z 08006KT 03/03 A3039 RMK A01 T00310029  RH  100%=      5-min Rain = 0
KGU1 071636Z 08005KT 03/03 A3039 RMK A01 T00310029  RH  100%=      5-min Rain = 0
KGU1 071637Z 08007KT 03/03 A3039 RMK A01 T00310029  RH  100%=      5-min Rain = 0
KGU1 071638Z 08007KT 03/03 A3039 RMK A01 T00310029  RH  100%=      5-min Rain = 0
KGU1 071639Z 08007KT 03/03 A3039 RMK A01 T00300028  RH  100%=      5-min Rain = 0
KGU1 071640Z 08007KT 03/03 A3039 RMK A01 T00300028  RH  100%=      5-min Rain = 0
KGU1 071641Z 07006KT 03/03 A3039 RMK A01 T00300027  RH  100%=      5-min Rain = 0
KGU1 071642Z 08006KT 03/03 A3039 RMK A01 T00310028  RH  100%=      5-min Rain = 0
KGU1 071643Z 08006KT 03/03 A3039 RMK A01 T00290027  RH  100%=      5-min Rain = 0
KGU1 071644Z 08006KT 03/03 A3039 RMK A01 T00290027  RH  100%=      5-min Rain = 0
KGU1 071645Z 08005KT 03/03 A3039 RMK A01 T00290027  RH  100%=      5-min Rain = 0
KGU1 071646Z 08006KT 03/03 A3039 RMK A01 T00300027  RH  100%=      5-min Rain = 0
KGU1 071647Z 08006KT 03/03 A3039 RMK A01 T00300027  RH  100%=      5-min Rain = 0
KGU1 071648Z 09006KT 03/03 A3039 RMK A01 T00290026  RH  100%=      5-min Rain = 0
KGU1 071649Z 08006KT 03/03 A3039 RMK A01 T00280026  RH  100%=      5-min Rain = 0
KGU1 071650Z 08004KT 03/03 A3039 RMK A01 T00290027  RH  100%=      5-min Rain = 0
KGU1 071651Z 08005KT 03/03 A304 RMK A01 T00300028  RH  100%=      5-min Rain = 0
KGU1 071652Z 09005KT 03/03 A304 RMK A01 T00290027  RH  100%=      5-min Rain = 0
KGU1 071653Z 09005KT 03/03 A304 RMK A01 T00300027  RH  100%=      5-min Rain = 0
KGU1 071654Z 08004KT 03/03 A304 RMK A01 T00300027  RH  100%=      5-min Rain = 0
KGU1 071655Z 07003KT 03/03 A304 RMK A01 T00300028  RH  100%=      5-min Rain = 0
KGU1 071656Z 07004KT 03/03 A304 RMK A01 T00290027  RH  100%=      5-min Rain = 0
KGU1 071657Z 07003KT 03/03 A304 RMK A01 T00270025  RH  100%=      5-min Rain = 0
KGU1 071658Z 07003KT 03/02 A304 RMK A01 T00270024  RH  100%=      5-min Rain = 0
KGU1 071659Z 08003KT 03/03 A304 RMK A01 T00270025  RH  100%=      5-min Rain = 0
KGU1 071700Z 07004KT 03/03 A304 RMK A01 T00280026  RH  100%=      5-min Rain = 0
KGU1 071701Z 07004KT 03/03 A304 RMK A01 T00280026  RH  100%=      5-min Rain = 0
KGU1 071702Z 07005KT 03/03 A304 RMK A01 T00280026  RH  100%=      5-min Rain = 0
KGU1 071703Z 06005KT 03/03 A304 RMK A01 T00280026  RH  100%=      5-min Rain = 0
KGU1 071704Z 06004KT 03/03 A304 RMK A01 T00300027  RH  100%=      5-min Rain = 0
KGU1 071705Z 07005KT 03/03 A304 RMK A01 T00310029  RH  100%=      5-min Rain = 0
KGU1 071706Z 08004KT 03/03 A304 RMK A01 T00310029  RH  100%=      5-min Rain = 0
KGU1 071707Z 06003KT 03/03 A304 RMK A01 T00310029  RH  100%=      5-min Rain = 0
KGU1 071708Z 07004KT 03/03 A304 RMK A01 T00320029  RH  100%=      5-min Rain = 0
KGU1 071709Z 07005KT 03/03 A304 RMK A01 T00320029  RH  100%=      5-min Rain = 0
KGU1 071710Z 07005KT 03/03 A304 RMK A01 T00300028  RH  100%=      5-min Rain = 0
KGU1 071711Z 06006KT 03/03 A304 RMK A01 T00300028  RH  100%=      5-min Rain = 0
KGU1 071712Z 06005KT 03/03 A304 RMK A01 T00300028  RH  100%=      5-min Rain = 0
KGU1 071713Z 06005KT 03/03 A304 RMK A01 T00310028  RH  100%=      5-min Rain = 0
KGU1 071714Z 06005KT 03/03 A304 RMK A01 T00310029  RH  100%=      5-min Rain = 0
KGU1 071715Z 06006KT 03/03 A304 RMK A01 T00320029  RH  100%=      5-min Rain = 0
KGU1 071716Z 06006KT 03/03 A304 RMK A01 T00310028  RH  100%=      5-min Rain = 0
KGU1 071717Z 07004KT 03/03 A304 RMK A01 T00300028  RH  100%=      5-min Rain = 0
KGU1 071718Z 08004KT 03/03 A304 RMK A01 T00320029  RH  100%=      5-min Rain = 0
KGU1 071719Z 08005KT 03/03 A304 RMK A01 T00320029  RH  100%=      5-min Rain = 0
KGU1 071720Z 07004KT 03/03 A304 RMK A01 T00320029  RH  100%=      5-min Rain = 0
KGU1 071721Z 07003KT 03/03 A304 RMK A01 T00310029  RH  100%=      5-min Rain = 0
KGU1 071722Z 07003KT 03/03 A304 RMK A01 T00320029  RH  100%=      5-min Rain = 0
KGU1 071723Z 07003KT 03/03 A304 RMK A01 T00320029  RH  100%=      5-min Rain = 0
KGU1 071724Z 08004KT 03/03 A304 RMK A01 T00320029  RH  100%=      5-min Rain = 0
KGU1 071725Z 07004KT 03/03 A304 RMK A01 T00310029  RH  100%=      5-min Rain = 0
KGU1 071726Z 07005KT 03/03 A304 RMK A01 T00310029  RH  100%=      5-min Rain = 0
KGU1 071727Z 07006KT 03/03 A304 RMK A01 T00310029  RH  100%=      5-min Rain = 0
KGU1 071728Z 06006KT 03/03 A304 RMK A01 T00310029  RH  100%=      5-min Rain = 0
KGU1 071729Z 06006KT 03/03 A304 RMK A01 T00320030  RH  100%=      5-min Rain = 0
KGU1 071730Z 06005KT 03/03 A304 RMK A01 T00320029  RH  100%=      5-min Rain = 0
KGU1 071731Z 05004KT 03/03 A304 RMK A01 T00320029  RH  100%=      5-min Rain = 0
KGU1 071732Z 06003KT 03/03 A304 RMK A01 T00320030  RH  100%=      5-min Rain = 0
KGU1 071733Z 07003KT 03/03 A304 RMK A01 T00320029  RH  100%=      5-min Rain = 0
KGU1 071734Z 07004KT 03/03 A304 RMK A01 T00310028  RH  100%=      5-min Rain = 0
KGU1 071735Z 07004KT 03/03 A304 RMK A01 T00310029  RH  100%=      5-min Rain = 0
KGU1 071736Z 08004KT 03/03 A304 RMK A01 T00310029  RH  100%=      5-min Rain = 0
KGU1 071737Z 07005KT 03/03 A304 RMK A01 T00320029  RH  100%=      5-min Rain = 0
KGU1 071738Z 07006KT 03/03 A304 RMK A01 T00320030  RH  100%=      5-min Rain = 0
KGU1 071739Z 06006KT 03/03 A304 RMK A01 T00320029  RH  100%=      5-min Rain = 0
KGU1 071740Z 06007KT 03/03 A304 RMK A01 T00320029  RH  100%=      5-min Rain = 0
KGU1 071741Z 06006KT 03/03 A304 RMK A01 T00320030  RH  100%=      5-min Rain = 0
KGU1 071742Z 07007KT 03/03 A304 RMK A01 T00320030  RH  100%=      5-min Rain = 0
KGU1 071743Z 06005KT 03/03 A304 RMK A01 T00320030  RH  100%=      5-min Rain = 0
KGU1 071744Z 06007KT 03/03 A304 RMK A01 T00330031  RH  100%=      5-min Rain = 0
KGU1 071745Z 06006KT 03/03 A304 RMK A01 T00330031  RH  100%=      5-min Rain = 0
KGU1 071746Z 06005KT 03/03 A304 RMK A01 T00330031  RH  100%=      5-min Rain = 0
KGU1 071747Z 06005KT 03/03 A304 RMK A01 T00330030  RH  100%=      5-min Rain = 0
KGU1 071748Z 05003KT 03/03 A304 RMK A01 T00330031  RH  100%=      5-min Rain = 0
KGU1 071749Z 04003KT 03/03 A3041 RMK A01 T00340032  RH  100%=      5-min Rain = 0
KGU1 071750Z 03004KT 04/03 A3041 RMK A01 T00350033  RH  100%=      5-min Rain = 0
KGU1 071751Z 03005KT 03/03 A3041 RMK A01 T00340032  RH  100%=      5-min Rain = 0
KGU1 071752Z 04005KT 03/03 A3041 RMK A01 T00320030  RH  100%=      5-min Rain = 0
KGU1 071753Z 06005KT 03/03 A304 RMK A01 T00320030  RH  100%=      5-min Rain = 0
KGU1 071754Z 05005KT 03/03 A304 RMK A01 T00330031  RH  100%=      5-min Rain = 0
KGU1 071755Z 05006KT 03/03 A304 RMK A01 T00330030  RH  100%=      5-min Rain = 0
KGU1 071756Z 06006KT 03/03 A304 RMK A01 T00330031  RH  100%=      5-min Rain = 0
KGU1 071757Z 07007KT 03/03 A304 RMK A01 T00330030  RH  100%=      5-min Rain = 0
KGU1 071758Z 06007KT 03/03 A304 RMK A01 T00330031  RH  100%=      5-min Rain = 0
KGU1 071759Z 07006KT 03/03 A304 RMK A01 T00340031  RH  100%=      5-min Rain = 0
KGU1 071800Z 07005KT 03/03 A304 RMK A01 T00340032  RH  100%=      5-min Rain = 0
KGU1 071801Z 06005KT 03/03 A304 RMK A01 T00340032  RH  100%=      5-min Rain = 0
KGU1 071802Z 05005KT 03/03 A304 RMK A01 T00340032  RH  100%=      5-min Rain = 0
KGU1 071803Z 06004KT 04/03 A304 RMK A01 T00350032  RH  100%=      5-min Rain = 0
KGU1 071804Z 08004KT 04/03 A304 RMK A01 T00350033  RH  100%=      5-min Rain = 0
KGU1 071805Z 08005KT 04/03 A3041 RMK A01 T00360034  RH  100%=      5-min Rain = 0
KGU1 071806Z 07007KT 04/03 A304 RMK A01 T00350032  RH  100%=      5-min Rain = 0
KGU1 071807Z 08007KT 03/03 A304 RMK A01 T00330030  RH  100%=      5-min Rain = 0
KGU1 071808Z 09007KT 03/03 A304 RMK A01 T00320029  RH  100%=      5-min Rain = 0
KGU1 071809Z 09006KT 03/03 A304 RMK A01 T00320029  RH  100%=      5-min Rain = 0
KGU1 071810Z 08007KT 03/03 A304 RMK A01 T00330030  RH  100%=      5-min Rain = 0
KGU1 071811Z 07007KT 03/03 A304 RMK A01 T00330030  RH  100%=      5-min Rain = 0.01
KGU1 071812Z 07008KT 03/03 A304 RMK A01 T00330031  RH  100%=      5-min Rain = 0
KGU1 071813Z 07008KT 03/03 A304 RMK A01 T00320030  RH  100%=      5-min Rain = 0
KGU1 071814Z 07007KT 03/03 A304 RMK A01 T00310029  RH  100%=      5-min Rain = 0
KGU1 071815Z 08006KT 03/03 A304 RMK A01 T00310028  RH  100%=      5-min Rain = 0
KGU1 071816Z 09005KT 03/03 A304 RMK A01 T00320029  RH  100%=      5-min Rain = 0
KGU1 071817Z 07006KT 03/03 A304 RMK A01 T00330031  RH  100%=      5-min Rain = 0
KGU1 071818Z 08008KT 03/03 A304 RMK A01 T00330030  RH  100%=      5-min Rain = 0
KGU1 071819Z 08009KT 03/03 A3039 RMK A01 T00310029  RH  100%=      5-min Rain = 0
KGU1 071820Z 08007KT 03/03 A304 RMK A01 T00300028  RH  100%=      5-min Rain = 0
KGU1 071821Z 08007KT 03/03 A304 RMK A01 T00300028  RH  100%=      5-min Rain = 0
KGU1 071822Z 07008KT 03/03 A304 RMK A01 T00300028  RH  100%=      5-min Rain = 0
KGU1 071823Z 07006KT 03/03 A304 RMK A01 T00300028  RH  100%=      5-min Rain = 0
KGU1 071824Z 06006KT 03/03 A304 RMK A01 T00300028  RH  100%=      5-min Rain = 0
KGU1 071825Z 06007KT 03/03 A304 RMK A01 T00310028  RH  100%=      5-min Rain = 0
KGU1 071826Z 06007KT 03/03 A304 RMK A01 T00300028  RH  100%=      5-min Rain = 0
KGU1 071827Z 06006KT 03/03 A304 RMK A01 T00300028  RH  100%=      5-min Rain = 0
KGU1 071828Z 05008KT 03/03 A304 RMK A01 T00320029  RH  100%=      5-min Rain = 0
KGU1 071829Z 07007KT 03/03 A3039 RMK A01 T00320029  RH  100%=      5-min Rain = 0
KGU1 071830Z 07009KT 03/03 A3039 RMK A01 T00310028  RH  100%=      5-min Rain = 0
KGU1 071831Z 07009KT 03/03 A3039 RMK A01 T00300028  RH  100%=      5-min Rain = 0
KGU1 071832Z 07009KT 03/03 A3039 RMK A01 T00300028  RH  100%=      5-min Rain = 0
KGU1 071833Z 08010KT 03/03 A3039 RMK A01 T00300028  RH  100%=      5-min Rain = 0
KGU1 071834Z 07009KT 03/03 A3039 RMK A01 T00310029  RH  100%=      5-min Rain = 0
KGU1 071835Z 07009KT 03/03 A3039 RMK A01 T00310029  RH  100%=      5-min Rain = 0
KGU1 071836Z 07008KT 03/03 A3039 RMK A01 T00310028  RH  100%=      5-min Rain = 0
KGU1 071837Z 07007KT 03/03 A3039 RMK A01 T00310029  RH  100%=      5-min Rain = 0
KGU1 071838Z 06007KT 03/03 A3039 RMK A01 T00310029  RH  100%=      5-min Rain = 0
KGU1 071839Z 07008KT 03/03 A3039 RMK A01 T00310029  RH  100%=      5-min Rain = 0
KGU1 071840Z 06007KT 03/03 A3039 RMK A01 T00310028  RH  100%=      5-min Rain = 0
KGU1 071841Z 06008KT 03/03 A3039 RMK A01 T00300028  RH  100%=      5-min Rain = 0
KGU1 071842Z 06007KT 03/03 A3039 RMK A01 T00300027  RH  100%=      5-min Rain = 0
KGU1 071843Z 06007KT 03/03 A3039 RMK A01 T00300028  RH  100%=      5-min Rain = 0
KGU1 071844Z 06007KT 03/03 A3039 RMK A01 T00310028  RH  100%=      5-min Rain = 0
KGU1 071845Z 07008KT 03/03 A3039 RMK A01 T00310029  RH  100%=      5-min Rain = 0
KGU1 071846Z 06007KT 03/03 A3039 RMK A01 T00300028  RH  100%=      5-min Rain = 0
KGU1 071847Z 06007KT 03/03 A3039 RMK A01 T00310029  RH  100%=      5-min Rain = 0
KGU1 071848Z 07006KT 03/03 A3039 RMK A01 T00300028  RH  100%=      5-min Rain = 0
KGU1 071849Z 07007KT 03/03 A3039 RMK A01 T00300028  RH  100%=      5-min Rain = 0
KGU1 071850Z 07006KT 03/03 A3039 RMK A01 T00300028  RH  100%=      5-min Rain = 0
KGU1 071851Z 07007KT 03/03 A3039 RMK A01 T00300027  RH  100%=      5-min Rain = 0
KGU1 071852Z 07006KT 03/03 A3039 RMK A01 T00300028  RH  100%=      5-min Rain = 0
KGU1 071853Z 07006KT 03/03 A3039 RMK A01 T00310028  RH  100%=      5-min Rain = 0
KGU1 071854Z 07007KT 03/03 A3039 RMK A01 T00310029  RH  100%=      5-min Rain = 0
KGU1 071855Z 06007KT 03/03 A3039 RMK A01 T00310029  RH  100%=      5-min Rain = 0
KGU1 071856Z 07007KT 03/03 A3038 RMK A01 T00310029  RH  100%=      5-min Rain = 0
KGU1 071857Z 06009KT 03/03 A3038 RMK A01 T00310029  RH  100%=      5-min Rain = 0
KGU1 071858Z 05008KT 03/03 A3038 RMK A01 T00310029  RH  100%=      5-min Rain = 0
KGU1 071859Z 06008KT 03/03 A3038 RMK A01 T00310029  RH  100%=      5-min Rain = 0.01
KGU1 071900Z 05008KT 03/03 A3038 RMK A01 T00310029  RH  100%=      5-min Rain = 0
KGU1 071901Z 06007KT 03/03 A3038 RMK A01 T00320030  RH  100%=      5-min Rain = 0
KGU1 071902Z 06009KT 03/03 A3038 RMK A01 T00310029  RH  100%=      5-min Rain = 0
KGU1 071903Z 05009KT 03/03 A3038 RMK A01 T00300028  RH  100%=      5-min Rain = 0
KGU1 071904Z 06009KT 03/03 A3038 RMK A01 T00300028  RH  100%=      5-min Rain = 0
KGU1 071905Z 05008KT 03/03 A3038 RMK A01 T00300028  RH  100%=      5-min Rain = 0
KGU1 071906Z 06009KT 03/03 A3038 RMK A01 T00300028  RH  100%=      5-min Rain = 0
KGU1 071907Z 06009KT 03/03 A3038 RMK A01 T00300028  RH  100%=      5-min Rain = 0
KGU1 071908Z 06007KT 03/03 A3038 RMK A01 T00300028  RH  100%=      5-min Rain = 0
KGU1 071909Z 05006KT 03/03 A3038 RMK A01 T00310029  RH  100%=      5-min Rain = 0
KGU1 071910Z 05007KT 03/03 A3038 RMK A01 T00320030  RH  100%=      5-min Rain = 0
KGU1 071911Z 05008KT 03/03 A3038 RMK A01 T00330030  RH  100%=      5-min Rain = 0
KGU1 071912Z 06008KT 03/03 A3038 RMK A01 T00320030  RH  100%=      5-min Rain = 0
KGU1 071913Z 05008KT 03/03 A3038 RMK A01 T00320030  RH  100%=      5-min Rain = 0
KGU1 071914Z 05008KT 03/03 A3038 RMK A01 T00320030  RH  100%=      5-min Rain = 0
KGU1 071915Z 05007KT 03/03 A3038 RMK A01 T00320029  RH  100%=      5-min Rain = 0
KGU1 071916Z 05007KT 03/03 A3038 RMK A01 T00320030  RH  100%=      5-min Rain = 0
KGU1 071917Z 04007KT 03/03 A3038 RMK A01 T00320030  RH  100%=      5-min Rain = 0
KGU1 071918Z 04006KT 03/03 A3038 RMK A01 T00320030  RH  100%=      5-min Rain = 0
KGU1 071919Z 04007KT 03/03 A3038 RMK A01 T00330031  RH  100%=      5-min Rain = 0
KGU1 071920Z 04008KT 03/03 A3039 RMK A01 T00330031  RH  100%=      5-min Rain = 0
KGU1 071921Z 04007KT 03/03 A3039 RMK A01 T00330031  RH  100%=      5-min Rain = 0
KGU1 071922Z 04007KT 03/03 A3039 RMK A01 T00330031  RH  100%=      5-min Rain = 0
KGU1 071923Z 05007KT 03/03 A3039 RMK A01 T00330031  RH  100%=      5-min Rain = 0
KGU1 071924Z 06007KT 03/03 A3038 RMK A01 T00340031  RH  100%=      5-min Rain = 0
KGU1 071925Z 06007KT 03/03 A3038 RMK A01 T00340031  RH  100%=      5-min Rain = 0
KGU1 071926Z 06006KT 03/03 A3038 RMK A01 T00340031  RH  100%=      5-min Rain = 0
KGU1 071927Z 06007KT 03/03 A3038 RMK A01 T00340032  RH  100%=      5-min Rain = 0
KGU1 071928Z 06007KT 04/03 A3038 RMK A01 T00350032  RH  100%=      5-min Rain = 0
KGU1 071929Z 06007KT 03/03 A3038 RMK A01 T00340032  RH  100%=      5-min Rain = 0
KGU1 071930Z 07006KT 03/03 A3038 RMK A01 T00340031  RH  100%=      5-min Rain = 0
KGU1 071931Z 06006KT 04/03 A3038 RMK A01 T00350032  RH  100%=      5-min Rain = 0
KGU1 071932Z 06006KT 04/03 A3038 RMK A01 T00350032  RH  100%=      5-min Rain = 0
KGU1 071933Z 06005KT 04/03 A3038 RMK A01 T00350033  RH  100%=      5-min Rain = 0
KGU1 071934Z 06006KT 04/03 A3038 RMK A01 T00370034  RH  100%=      5-min Rain = 0
KGU1 071935Z 05008KT 04/03 A3038 RMK A01 T00370034  RH  100%=      5-min Rain = 0
KGU1 071936Z 05007KT 04/03 A3038 RMK A01 T00360034  RH  100%=      5-min Rain = 0
KGU1 071937Z 05008KT 04/03 A3038 RMK A01 T00370034  RH  100%=      5-min Rain = 0
KGU1 071938Z 05007KT 04/03 A3038 RMK A01 T00370034  RH  100%=      5-min Rain = 0
KGU1 071939Z 05008KT 04/04 A3038 RMK A01 T00370035  RH  100%=      5-min Rain = 0
KGU1 071940Z 05007KT 04/04 A3038 RMK A01 T00380035  RH  100%=      5-min Rain = 0
KGU1 071941Z 05007KT 04/04 A3038 RMK A01 T00390037  RH  100%=      5-min Rain = 0
KGU1 071942Z 04009KT 04/04 A3038 RMK A01 T00390037  RH  100%=      5-min Rain = 0
KGU1 071943Z 03009KT 04/04 A3038 RMK A01 T00400037  RH  100%=      5-min Rain = 0
KGU1 071944Z 03009KT 04/04 A3038 RMK A01 T00400037  RH  100%=      5-min Rain = 0
KGU1 071945Z 04007KT 04/04 A3038 RMK A01 T00410038  RH  100%=      5-min Rain = 0
KGU1 071946Z 03008KT 04/04 A3037 RMK A01 T00420039  RH  100%=      5-min Rain = 0
KGU1 071947Z 03007KT 04/04 A3037 RMK A01 T00410039  RH  100%=      5-min Rain = 0
KGU1 071948Z 04008KT 04/04 A3037 RMK A01 T00420039  RH  100%=      5-min Rain = 0
KGU1 071949Z 04008KT 04/04 A3037 RMK A01 T00430040  RH  100%=      5-min Rain = 0
KGU1 071950Z 04008KT 04/04 A3037 RMK A01 T00430040  RH  100%=      5-min Rain = 0
KGU1 071951Z 04008KT 04/04 A3037 RMK A01 T00430040  RH  100%=      5-min Rain = 0
KGU1 071952Z 03007KT 04/04 A3037 RMK A01 T00440041  RH  100%=      5-min Rain = 0
KGU1 071953Z 04007KT 04/04 A3037 RMK A01 T00440041  RH  100%=      5-min Rain = 0
KGU1 071954Z 04008KT 04/04 A3037 RMK A01 T00440041  RH  100%=      5-min Rain = 0
KGU1 071955Z 04007KT 04/04 A3037 RMK A01 T00440041  RH  100%=      5-min Rain = 0
KGU1 071956Z 04007KT 04/04 A3037 RMK A01 T00440042  RH  100%=      5-min Rain = 0
KGU1 071957Z 05007KT 05/04 A3037 RMK A01 T00450042  RH  100%=      5-min Rain = 0
KGU1 071958Z 04006KT 05/04 A3037 RMK A01 T00450043  RH  100%=      5-min Rain = 0
KGU1 071959Z 04005KT 05/04 A3037 RMK A01 T00460043  RH  100%=      5-min Rain = 0
KGU1 072000Z 04004KT 05/05 A3037 RMK A01 T00480045  RH  100%=      5-min Rain = 0
KGU1 072001Z 04005KT 05/05 A3037 RMK A01 T00480045  RH  100%=      5-min Rain = 0
KGU1 072002Z 05004KT 05/05 A3037 RMK A01 T00480045  RH  100%=      5-min Rain = 0
KGU1 072003Z 04004KT 05/05 A3037 RMK A01 T00480045  RH  100%=      5-min Rain = 0
KGU1 072004Z 06005KT 05/05 A3037 RMK A01 T00490046  RH  100%=      5-min Rain = 0
KGU1 072005Z 06005KT 05/05 A3036 RMK A01 T00490046  RH  100%=      5-min Rain = 0
KGU1 072006Z 06004KT 05/05 A3036 RMK A01 T00500047  RH  100%=      5-min Rain = 0
KGU1 072007Z 06005KT 05/05 A3036 RMK A01 T00500047  RH  100%=      5-min Rain = 0
KGU1 072008Z 05006KT 05/05 A3036 RMK A01 T00510048  RH  100%=      5-min Rain = 0
KGU1 072009Z 05006KT 05/05 A3036 RMK A01 T00510048  RH  100%=      5-min Rain = 0
KGU1 072010Z 05006KT 05/05 A3036 RMK A01 T00500047  RH  100%=      5-min Rain = 0
KGU1 072011Z 06006KT 05/05 A3036 RMK A01 T00520049  RH  100%=      5-min Rain = 0
KGU1 072012Z 05007KT 05/05 A3036 RMK A01 T00520049  RH  100%=      5-min Rain = 0
KGU1 072013Z 05007KT 05/05 A3036 RMK A01 T00520049  RH  100%=      5-min Rain = 0
KGU1 072014Z 04007KT 05/05 A3035 RMK A01 T00530050  RH  100%=      5-min Rain = 0
KGU1 072015Z 05007KT 06/05 A3035 RMK A01 T00550052  RH  100%=      5-min Rain = 0
KGU1 072016Z 04009KT 06/05 A3036 RMK A01 T00560053  RH  100%=      5-min Rain = 0
KGU1 072017Z 04008KT 06/05 A3036 RMK A01 T00570054  RH  100%=      5-min Rain = 0
KGU1 072018Z 04009KT 06/06 A3036 RMK A01 T00580055  RH  100%=      5-min Rain = 0
KGU1 072019Z 05009KT 06/06 A3036 RMK A01 T00580055  RH  100%=      5-min Rain = 0
KGU1 072020Z 05008KT 06/06 A3036 RMK A01 T00590056  RH  100%=      5-min Rain = 0
KGU1 072021Z 05009KT 06/06 A3036 RMK A01 T00600057  RH  100%=      5-min Rain = 0
KGU1 072022Z 04008KT 06/06 A3036 RMK A01 T00610058  RH  100%=      5-min Rain = 0
KGU1 072023Z 04010KT 06/06 A3036 RMK A01 T00610058  RH  100%=      5-min Rain = 0
KGU1 072024Z 04009KT 06/06 A3036 RMK A01 T00610058  RH  100%=      5-min Rain = 0
KGU1 072025Z 05011KT 06/06 A3036 RMK A01 T00610058  RH  100%=      5-min Rain = 0
KGU1 072026Z 04009KT 06/06 A3036 RMK A01 T00610058  RH  100%=      5-min Rain = 0
KGU1 072027Z 06009KT 06/06 A3036 RMK A01 T00620058  RH  100%=      5-min Rain = 0
KGU1 072028Z 09008KT 06/06 A3036 RMK A01 T00610058  RH  100%=      5-min Rain = 0
KGU1 072029Z 08007KT 06/05 A3036 RMK A01 T00560053  RH  100%=      5-min Rain = 0
KGU1 072030Z 08008KT 05/05 A3036 RMK A01 T00530050  RH  100%=      5-min Rain = 0
KGU1 072031Z 08007KT 05/05 A3036 RMK A01 T00520049  RH  100%=      5-min Rain = 0
KGU1 072032Z 08006KT 05/05 A3036 RMK A01 T00510048  RH  100%=      5-min Rain = 0
KGU1 072033Z 09008KT 05/05 A3036 RMK A01 T00500047  RH  100%=      5-min Rain = 0
KGU1 072034Z 08007KT 05/05 A3036 RMK A01 T00490046  RH  100%=      5-min Rain = 0
KGU1 072035Z 09006KT 05/05 A3036 RMK A01 T00480046  RH  100%=      5-min Rain = 0
KGU1 072036Z 10007KT 05/04 A3036 RMK A01 T00460044  RH  100%=      5-min Rain = 0
KGU1 072037Z 09008KT 04/04 A3036 RMK A01 T00440041  RH  100%=      5-min Rain = 0
KGU1 072038Z 09008KT 04/04 A3036 RMK A01 T00430041  RH  100%=      5-min Rain = 0
KGU1 072039Z 09009KT 04/04 A3036 RMK A01 T00430041  RH  100%=      5-min Rain = 0
KGU1 072040Z 08009KT 04/04 A3036 RMK A01 T00420040  RH  100%=      5-min Rain = 0
KGU1 072041Z 09008KT 04/04 A3036 RMK A01 T00420040  RH  100%=      5-min Rain = 0
KGU1 072042Z 09009KT 04/04 A3036 RMK A01 T00420040  RH  100%=      5-min Rain = 0
KGU1 072043Z 09008KT 04/04 A3036 RMK A01 T00420039  RH  100%=      5-min Rain = 0
KGU1 072044Z 09009KT 04/04 A3036 RMK A01 T00420039  RH  100%=      5-min Rain = 0
KGU1 072045Z 08008KT 04/04 A3036 RMK A01 T00410038  RH  100%=      5-min Rain = 0
KGU1 072046Z 09007KT 04/04 A3036 RMK A01 T00400037  RH  100%=      5-min Rain = 0
KGU1 072047Z 08007KT 04/04 A3036 RMK A01 T00400037  RH  100%=      5-min Rain = 0
KGU1 072048Z 08006KT 04/04 A3036 RMK A01 T00400037  RH  100%=      5-min Rain = 0
KGU1 072049Z 09007KT 04/04 A3036 RMK A01 T00390036  RH  100%=      5-min Rain = 0
KGU1 072050Z 08006KT 04/04 A3036 RMK A01 T00390036  RH  100%=      5-min Rain = 0
KGU1 072051Z 07007KT 04/04 A3036 RMK A01 T00380035  RH  100%=      5-min Rain = 0
KGU1 072052Z 07007KT 04/03 A3036 RMK A01 T00370034  RH  100%=      5-min Rain = 0
KGU1 072053Z 07007KT 04/03 A3036 RMK A01 T00360033  RH  100%=      5-min Rain = 0
KGU1 072054Z 07005KT 04/03 A3036 RMK A01 T00350032  RH  100%=      5-min Rain = 0
KGU1 072055Z 07007KT 03/03 A3036 RMK A01 T00340032  RH  100%=      5-min Rain = 0
KGU1 072056Z 07005KT 03/03 A3037 RMK A01 T00330031  RH  100%=      5-min Rain = 0
KGU1 072057Z 06005KT 03/03 A3037 RMK A01 T00340031  RH  100%=      5-min Rain = 0
KGU1 072058Z 06007KT 03/03 A3037 RMK A01 T00340032  RH  100%=      5-min Rain = 0
KGU1 072059Z 07006KT 03/03 A3037 RMK A01 T00340031  RH  100%=      5-min Rain = 0
KGU1 072100Z 07006KT 03/03 A3037 RMK A01 T00330030  RH  100%=      5-min Rain = 0
KGU1 072101Z 07005KT 03/03 A3037 RMK A01 T00330031  RH  100%=      5-min Rain = 0
KGU1 072102Z 07005KT 03/03 A3037 RMK A01 T00340031  RH  100%=      5-min Rain = 0
KGU1 072103Z 08005KT 04/03 A3037 RMK A01 T00350032  RH  100%=      5-min Rain = 0
KGU1 072104Z 08006KT 04/03 A3037 RMK A01 T00350032  RH  100%=      5-min Rain = 0
KGU1 072105Z 08006KT 03/03 A3036 RMK A01 T00340032  RH  100%=      5-min Rain = 0
KGU1 072106Z 08005KT 03/03 A3036 RMK A01 T00340032  RH  100%=      5-min Rain = 0
KGU1 072107Z 08007KT 04/03 A3036 RMK A01 T00350033  RH  100%=      5-min Rain = 0
KGU1 072108Z 07007KT 04/03 A3036 RMK A01 T00350033  RH  100%=      5-min Rain = 0
KGU1 072109Z 07005KT 04/03 A3036 RMK A01 T00350033  RH  100%=      5-min Rain = 0
KGU1 072110Z 07005KT 04/03 A3036 RMK A01 T00360034  RH  100%=      5-min Rain = 0
KGU1 072111Z 07006KT 04/04 A3036 RMK A01 T00370035  RH  100%=      5-min Rain = 0
KGU1 072112Z 07007KT 04/03 A3036 RMK A01 T00360033  RH  100%=      5-min Rain = 0
KGU1 072113Z 07007KT 03/03 A3036 RMK A01 T00340032  RH  100%=      5-min Rain = 0
KGU1 072114Z 08006KT 03/03 A3036 RMK A01 T00340032  RH  100%=      5-min Rain = 0
KGU1 072115Z 08006KT 04/03 A3037 RMK A01 T00350032  RH  100%=      5-min Rain = 0
KGU1 072116Z 08007KT 03/03 A3037 RMK A01 T00340032  RH  100%=      5-min Rain = 0
KGU1 072117Z 08007KT 03/03 A3037 RMK A01 T00320030  RH  100%=      5-min Rain = 0
KGU1 072118Z 08005KT 03/03 A3037 RMK A01 T00320029  RH  100%=      5-min Rain = 0
KGU1 072119Z 08007KT 03/03 A3037 RMK A01 T00330030  RH  100%=      5-min Rain = 0
KGU1 072120Z 09007KT 03/03 A3037 RMK A01 T00320030  RH  100%=      5-min Rain = 0
KGU1 072121Z 09006KT 03/03 A3037 RMK A01 T00320030  RH  100%=      5-min Rain = 0
KGU1 072122Z 08007KT 03/03 A3037 RMK A01 T00320029  RH  100%=      5-min Rain = 0
KGU1 072123Z 08007KT 03/03 A3037 RMK A01 T00310029  RH  100%=      5-min Rain = 0
KGU1 072124Z 09007KT 03/03 A3037 RMK A01 T00310029  RH  100%=      5-min Rain = 0
KGU1 072125Z 09007KT 03/03 A3037 RMK A01 T00300028  RH  100%=      5-min Rain = 0
KGU1 072126Z 08007KT 03/03 A3037 RMK A01 T00300028  RH  100%=      5-min Rain = 0
KGU1 072127Z 08006KT 03/03 A3037 RMK A01 T00300028  RH  100%=      5-min Rain = 0
KGU1 072128Z 09005KT 03/03 A3037 RMK A01 T00310029  RH  100%=      5-min Rain = 0
KGU1 072129Z 08005KT 03/03 A3037 RMK A01 T00330030  RH  100%=      5-min Rain = 0
KGU1 072130Z 07006KT 03/03 A3037 RMK A01 T00330031  RH  100%=      5-min Rain = 0
KGU1 072131Z 09007KT 03/03 A3037 RMK A01 T00320029  RH  100%=      5-min Rain = 0
KGU1 072132Z 07006KT 03/03 A3037 RMK A01 T00300027  RH  100%=      5-min Rain = 0
KGU1 072133Z 08007KT 03/03 A3037 RMK A01 T00290027  RH  100%=      5-min Rain = 0
KGU1 072134Z 08007KT 03/03 A3037 RMK A01 T00290027  RH  100%=      5-min Rain = 0
KGU1 072135Z 07007KT 03/03 A3037 RMK A01 T00290027  RH  100%=      5-min Rain = 0
KGU1 072136Z 07006KT 03/03 A3037 RMK A01 T00290026  RH  100%=      5-min Rain = 0
KGU1 072137Z 08007KT 03/03 A3037 RMK A01 T00290027  RH  100%=      5-min Rain = 0
KGU1 072138Z 08007KT 03/03 A3037 RMK A01 T00290026  RH  100%=      5-min Rain = 0
KGU1 072139Z 08006KT 03/03 A3037 RMK A01 T00280026  RH  100%=      5-min Rain = 0
KGU1 072140Z 07007KT 03/03 A3037 RMK A01 T00280025  RH  100%=      5-min Rain = 0
KGU1 072141Z 08006KT 03/03 A3037 RMK A01 T00270025  RH  100%=      5-min Rain = 0
KGU1 072142Z 08006KT 03/03 A3037 RMK A01 T00270025  RH  100%=      5-min Rain = 0
KGU1 072143Z 08007KT 03/03 A3037 RMK A01 T00280025  RH  100%=      5-min Rain = 0
KGU1 072144Z 07005KT 03/03 A3037 RMK A01 T00280026  RH  100%=      5-min Rain = 0
KGU1 072145Z 08005KT 03/03 A3037 RMK A01 T00290027  RH  100%=      5-min Rain = 0
KGU1 072146Z 07006KT 03/03 A3037 RMK A01 T00280026  RH  100%=      5-min Rain = 0
KGU1 072147Z 07006KT 03/03 A3037 RMK A01 T00270025  RH  100%=      5-min Rain = 0
KGU1 072148Z 07006KT 03/03 A3036 RMK A01 T00270025  RH  100%=      5-min Rain = 0
KGU1 072149Z 08006KT 03/02 A3036 RMK A01 T00260024  RH  100%=      5-min Rain = 0
KGU1 072150Z 06005KT 03/03 A3036 RMK A01 T00270025  RH  100%=      5-min Rain = 0
KGU1 072151Z 07007KT 03/03 A3036 RMK A01 T00290027  RH  100%=      5-min Rain = 0
KGU1 072152Z 06008KT 03/03 A3036 RMK A01 T00290026  RH  100%=      5-min Rain = 0
KGU1 072153Z 06007KT 03/03 A3036 RMK A01 T00270025  RH  100%=      5-min Rain = 0
KGU1 072154Z 07006KT 03/03 A3036 RMK A01 T00270025  RH  100%=      5-min Rain = 0
KGU1 072155Z 07008KT 03/03 A3036 RMK A01 T00280026  RH  100%=      5-min Rain = 0
KGU1 072156Z 07007KT 03/02 A3036 RMK A01 T00270024  RH  100%=      5-min Rain = 0
KGU1 072157Z 06006KT 03/02 A3036 RMK A01 T00260024  RH  100%=      5-min Rain = 0
KGU1 072158Z 07006KT 03/02 A3036 RMK A01 T00260024  RH  100%=      5-min Rain = 0
KGU1 072159Z 07006KT 03/02 A3036 RMK A01 T00270024  RH  100%=      5-min Rain = 0
KGU1 072200Z 08007KT 03/03 A3036 RMK A01 T00270025  RH  100%=      5-min Rain = 0
KGU1 072201Z 08007KT 03/02 A3036 RMK A01 T00260024  RH  100%=      5-min Rain = 0
KGU1 072202Z 08007KT 03/02 A3037 RMK A01 T00260023  RH  100%=      5-min Rain = 0
KGU1 072203Z 08006KT 03/02 A3037 RMK A01 T00250023  RH  100%=      5-min Rain = 0
KGU1 072204Z 08005KT 03/02 A3037 RMK A01 T00260024  RH  100%=      5-min Rain = 0
KGU1 072205Z 08005KT 03/03 A3037 RMK A01 T00280026  RH  100%=      5-min Rain = 0
KGU1 072206Z 07007KT 03/03 A3037 RMK A01 T00270025  RH  100%=      5-min Rain = 0
KGU1 072207Z 08007KT 03/02 A3037 RMK A01 T00250022  RH  100%=      5-min Rain = 0
KGU1 072208Z 08006KT 02/02 A3037 RMK A01 T00240022  RH  100%=      5-min Rain = 0
KGU1 072209Z 08006KT 03/02 A3037 RMK A01 T00250022  RH  100%=      5-min Rain = 0
KGU1 072210Z 07006KT 03/02 A3037 RMK A01 T00250022  RH  100%=      5-min Rain = 0
KGU1 072211Z 06006KT 02/02 A3037 RMK A01 T00240022  RH  100%=      5-min Rain = 0
KGU1 072212Z 06006KT 02/02 A3037 RMK A01 T00240022  RH  100%=      5-min Rain = 0
KGU1 072213Z 07006KT 02/02 A3037 RMK A01 T00240022  RH  100%=      5-min Rain = 0
KGU1 072214Z 08006KT 02/02 A3037 RMK A01 T00240022  RH  100%=      5-min Rain = 0
KGU1 072215Z 08006KT 02/02 A3037 RMK A01 T00240022  RH  100%=      5-min Rain = 0
KGU1 072216Z 08007KT 02/02 A3037 RMK A01 T00240022  RH  100%=      5-min Rain = 0
KGU1 072217Z 08006KT 02/02 A3037 RMK A01 T00230021  RH  100%=      5-min Rain = 0
KGU1 072218Z 06005KT 03/02 A3037 RMK A01 T00250022  RH  100%=      5-min Rain = 0
KGU1 072219Z 06006KT 02/02 A3037 RMK A01 T00240022  RH  100%=      5-min Rain = 0
KGU1 072220Z 06006KT 02/02 A3037 RMK A01 T00240022  RH  100%=      5-min Rain = 0
KGU1 072221Z 07005KT 03/02 A3037 RMK A01 T00250022  RH  100%=      5-min Rain = 0
KGU1 072222Z 07005KT 03/02 A3037 RMK A01 T00260023  RH  100%=      5-min Rain = 0
KGU1 072223Z 07005KT 03/02 A3037 RMK A01 T00250023  RH  100%=      5-min Rain = 0
KGU1 072224Z 07006KT 03/02 A3037 RMK A01 T00250023  RH  100%=      5-min Rain = 0
KGU1 072225Z 07006KT 03/02 A3037 RMK A01 T00250023  RH  100%=      5-min Rain = 0
KGU1 072226Z 07005KT 03/02 A3037 RMK A01 T00250023  RH  100%=      5-min Rain = 0
KGU1 072227Z 07006KT 03/02 A3037 RMK A01 T00260023  RH  100%=      5-min Rain = 0
KGU1 072228Z 07006KT 03/02 A3037 RMK A01 T00250023  RH  100%=      5-min Rain = 0
KGU1 072229Z 06006KT 02/02 A3037 RMK A01 T00240022  RH  100%=      5-min Rain = 0
KGU1 072230Z 07006KT 02/02 A3037 RMK A01 T00240022  RH  100%=      5-min Rain = 0
KGU1 072231Z 07006KT 02/02 A3038 RMK A01 T00240022  RH  100%=      5-min Rain = 0
KGU1 072232Z 06005KT 02/02 A3038 RMK A01 T00240022  RH  100%=      5-min Rain = 0
KGU1 072233Z 07006KT 02/02 A3038 RMK A01 T00240021  RH  100%=      5-min Rain = 0
KGU1 072234Z 08005KT 02/02 A3038 RMK A01 T00230021  RH  100%=      5-min Rain = 0
KGU1 072235Z 07006KT 02/02 A3037 RMK A01 T00230021  RH  100%=      5-min Rain = 0
KGU1 072236Z 06006KT 02/02 A3037 RMK A01 T00240022  RH  100%=      5-min Rain = 0
KGU1 072237Z 05006KT 02/02 A3037 RMK A01 T00240022  RH  100%=      5-min Rain = 0
KGU1 072238Z 05005KT 02/02 A3037 RMK A01 T00240022  RH  100%=      5-min Rain = 0
KGU1 072239Z 06005KT 03/02 A3037 RMK A01 T00250022  RH  100%=      5-min Rain = 0
KGU1 072240Z 07006KT 02/02 A3038 RMK A01 T00240022  RH  100%=      5-min Rain = 0
KGU1 072241Z 07005KT 02/02 A3038 RMK A01 T00230021  RH  100%=      5-min Rain = 0
KGU1 072242Z 07005KT 02/02 A3038 RMK A01 T00220020  RH  100%=      5-min Rain = 0
KGU1 072243Z 08005KT 02/02 A3038 RMK A01 T00230021  RH  100%=      5-min Rain = 0
KGU1 072244Z 08006KT 02/02 A3038 RMK A01 T00230020  RH  100%=      5-min Rain = 0
KGU1 072245Z 07005KT 02/02 A3038 RMK A01 T00220020  RH  100%=      5-min Rain = 0
KGU1 072246Z 07005KT 02/02 A3038 RMK A01 T00230021  RH  100%=      5-min Rain = 0
KGU1 072247Z 08007KT 02/02 A3038 RMK A01 T00230021  RH  100%=      5-min Rain = 0
KGU1 072248Z 08006KT 02/02 A3038 RMK A01 T00220020  RH  100%=      5-min Rain = 0
KGU1 072249Z 08005KT 02/02 A3038 RMK A01 T00220020  RH  100%=      5-min Rain = 0
KGU1 072250Z 08004KT 02/02 A3038 RMK A01 T00220020  RH  100%=      5-min Rain = 0
KGU1 072251Z 09006KT 02/02 A3038 RMK A01 T00230021  RH  100%=      5-min Rain = 0
KGU1 072252Z 09006KT 02/02 A3038 RMK A01 T00230021  RH  100%=      5-min Rain = 0
KGU1 072253Z 09006KT 02/02 A3038 RMK A01 T00220020  RH  100%=      5-min Rain = 0
KGU1 072254Z 09007KT 02/02 A3038 RMK A01 T00210019  RH  100%=      5-min Rain = 0
KGU1 072255Z 10006KT 02/02 A3038 RMK A01 T00210019  RH  100%=      5-min Rain = 0
KGU1 072256Z 09006KT 02/02 A3038 RMK A01 T00210019  RH  100%=      5-min Rain = 0
KGU1 072257Z 09006KT 02/02 A3038 RMK A01 T00210018  RH  100%=      5-min Rain = 0
KGU1 072258Z 09005KT 02/02 A3038 RMK A01 T00210019  RH  100%=      5-min Rain = 0
KGU1 072259Z 09005KT 02/02 A3038 RMK A01 T00200018  RH  100%=      5-min Rain = 0
KGU1 072300Z 08006KT 02/02 A3038 RMK A01 T00200018  RH  100%=      5-min Rain = 0
KGU1 072301Z 08005KT 02/02 A3038 RMK A01 T00210019  RH  100%=      5-min Rain = 0
KGU1 072302Z 08006KT 02/02 A3038 RMK A01 T00200018  RH  100%=      5-min Rain = 0
KGU1 072303Z 08005KT 02/02 A3038 RMK A01 T00200018  RH  100%=      5-min Rain = 0
KGU1 072304Z 07006KT 02/02 A3038 RMK A01 T00200018  RH  100%=      5-min Rain = 0
KGU1 072305Z 07006KT 02/02 A3038 RMK A01 T00210019  RH  100%=      5-min Rain = 0
KGU1 072306Z 07006KT 02/02 A3038 RMK A01 T00200018  RH  100%=      5-min Rain = 0
KGU1 072307Z 07006KT 02/02 A3038 RMK A01 T00190017  RH  100%=      5-min Rain = 0
KGU1 072308Z 05007KT 02/02 A3038 RMK A01 T00190017  RH  100%=      5-min Rain = 0
KGU1 072309Z 06006KT 02/02 A3038 RMK A01 T00190017  RH  100%=      5-min Rain = 0
KGU1 072310Z 06006KT 02/02 A3037 RMK A01 T00190017  RH  100%=      5-min Rain = 0
KGU1 072311Z 06005KT 02/02 A3037 RMK A01 T00200018  RH  100%=      5-min Rain = 0
KGU1 072312Z 05006KT 02/02 A3037 RMK A01 T00210019  RH  100%=      5-min Rain = 0
KGU1 072313Z 06006KT 02/02 A3037 RMK A01 T00210019  RH  100%=      5-min Rain = 0
KGU1 072314Z 06007KT 02/02 A3037 RMK A01 T00200018  RH  100%=      5-min Rain = 0
KGU1 072315Z 06007KT 02/02 A3037 RMK A01 T00190017  RH  100%=      5-min Rain = 0
KGU1 072316Z 06006KT 02/02 A3037 RMK A01 T00190017  RH  100%=      5-min Rain = 0
KGU1 072317Z 06006KT 02/02 A3038 RMK A01 T00200017  RH  100%=      5-min Rain = 0
KGU1 072318Z 06005KT 02/02 A3038 RMK A01 T00200018  RH  100%=      5-min Rain = 0
KGU1 072319Z 07004KT 02/02 A3038 RMK A01 T00200018  RH  100%=      5-min Rain = 0
KGU1 072320Z 07005KT 02/02 A3038 RMK A01 T00210019  RH  100%=      5-min Rain = 0
KGU1 072321Z 07006KT 02/02 A3038 RMK A01 T00200018  RH  100%=      5-min Rain = 0
KGU1 072322Z 08006KT 02/02 A3038 RMK A01 T00210019  RH  100%=      5-min Rain = 0
KGU1 072323Z 08006KT 02/02 A3038 RMK A01 T00200018  RH  100%=      5-min Rain = 0
KGU1 072324Z 08006KT 02/02 A3038 RMK A01 T00200018  RH  100%=      5-min Rain = 0
KGU1 072325Z 08006KT 02/02 A3038 RMK A01 T00210019  RH  100%=      5-min Rain = 0
KGU1 072326Z 08006KT 02/02 A3038 RMK A01 T00210019  RH  100%=      5-min Rain = 0
KGU1 072327Z 08005KT 02/02 A3038 RMK A01 T00200018  RH  100%=      5-min Rain = 0
KGU1 072328Z 09005KT 02/02 A3038 RMK A01 T00210019  RH  100%=      5-min Rain = 0
KGU1 072329Z 08005KT 02/02 A3038 RMK A01 T00220020  RH  100%=      5-min Rain = 0
KGU1 072330Z 09005KT 02/02 A3038 RMK A01 T00220020  RH  100%=      5-min Rain = 0
KGU1 072331Z 09004KT 02/02 A3038 RMK A01 T00210019  RH  100%=      5-min Rain = 0
KGU1 072332Z 07004KT 02/02 A3038 RMK A01 T00220019  RH  100%=      5-min Rain = 0
KGU1 072333Z 08006KT 02/02 A3038 RMK A01 T00210019  RH  100%=      5-min Rain = 0
KGU1 072334Z 08006KT 02/02 A3038 RMK A01 T00210018  RH  100%=      5-min Rain = 0
KGU1 072335Z 08006KT 02/02 A3038 RMK A01 T00200018  RH  100%=      5-min Rain = 0
KGU1 072336Z 08006KT 02/02 A3038 RMK A01 T00200018  RH  100%=      5-min Rain = 0
KGU1 072337Z 07006KT 02/02 A3038 RMK A01 T00190017  RH  100%=      5-min Rain = 0
KGU1 072338Z 07006KT 02/02 A3038 RMK A01 T00190017  RH  100%=      5-min Rain = 0
KGU1 072339Z 07005KT 02/02 A3038 RMK A01 T00190017  RH  100%=      5-min Rain = 0
KGU1 072340Z 07006KT 02/02 A3038 RMK A01 T00190017  RH  100%=      5-min Rain = 0
KGU1 072341Z 08004KT 02/02 A3038 RMK A01 T00180016  RH  100%=      5-min Rain = 0
KGU1 072342Z 06005KT 02/02 A3038 RMK A01 T00190017  RH  100%=      5-min Rain = 0
KGU1 072343Z 06005KT 02/02 A3038 RMK A01 T00190017  RH  100%=      5-min Rain = 0
KGU1 072344Z 06004KT 02/02 A3038 RMK A01 T00190017  RH  100%=      5-min Rain = 0
KGU1 072345Z 06004KT 02/02 A3038 RMK A01 T00200018  RH  100%=      5-min Rain = 0
KGU1 072346Z 07005KT 02/02 A3038 RMK A01 T00190017  RH  100%=      5-min Rain = 0
KGU1 072347Z 07005KT 02/02 A3038 RMK A01 T00180016  RH  100%=      5-min Rain = 0
KGU1 072348Z 07006KT 02/02 A3038 RMK A01 T00180016  RH  100%=      5-min Rain = 0
KGU1 072349Z 06004KT 02/02 A3038 RMK A01 T00180016  RH  100%=      5-min Rain = 0
KGU1 072350Z 05004KT 02/02 A3038 RMK A01 T00190017  RH  100%=      5-min Rain = 0
KGU1 072351Z 05004KT 02/02 A3038 RMK A01 T00190017  RH  100%=      5-min Rain = 0
KGU1 072352Z 06005KT 02/02 A3038 RMK A01 T00190017  RH  100%=      5-min Rain = 0
KGU1 072353Z 06005KT 02/02 A3038 RMK A01 T00180016  RH  100%=      5-min Rain = 0
KGU1 072354Z 07005KT 02/02 A3038 RMK A01 T00170015  RH  100%=      5-min Rain = 0
KGU1 072355Z 07004KT 02/02 A3038 RMK A01 T00180016  RH  100%=      5-min Rain = 0
KGU1 072356Z 08003KT 02/02 A3038 RMK A01 T00190017  RH  100%=      5-min Rain = 0
KGU1 072357Z 08005KT 02/02 A3038 RMK A01 T00200018  RH  100%=      5-min Rain = 0
KGU1 072358Z 09006KT 02/02 A3038 RMK A01 T00200018  RH  100%=      5-min Rain = 0
KGU1 072359Z 09005KT 02/02 A3038 RMK A01 T00180016  RH  100%=      5-min Rain = 0
KGU1 080000Z 08004KT 02/02 A3038 RMK A01 T00180016  RH  100%=      5-min Rain = 0
KGU1 080001Z 09005KT 02/02 A3038 RMK A01 T00180016  RH  100%=      5-min Rain = 0
KGU1 080002Z 09004KT 02/02 A3039 RMK A01 T00180016  RH  100%=      5-min Rain = 0
KGU1 080003Z 10005KT 02/02 A3039 RMK A01 T00190017  RH  100%=      5-min Rain = 0
KGU1 080004Z 09005KT 02/02 A3038 RMK A01 T00180016  RH  100%=      5-min Rain = 0
KGU1 080005Z 09006KT 02/02 A3038 RMK A01 T00180016  RH  100%=      5-min Rain = 0
KGU1 080006Z 09006KT 02/02 A3038 RMK A01 T00170015  RH  100%=      5-min Rain = 0
KGU1 080007Z 09005KT 02/02 A3038 RMK A01 T00170015  RH  100%=      5-min Rain = 0
KGU1 080008Z 08006KT 02/02 A3038 RMK A01 T00180016  RH  100%=      5-min Rain = 0
KGU1 080009Z 07005KT 02/02 A3038 RMK A01 T00170015  RH  100%=      5-min Rain = 0
KGU1 080010Z 08006KT 02/02 A3038 RMK A01 T00170015  RH  100%=      5-min Rain = 0
KGU1 080011Z 07004KT 02/02 A3038 RMK A01 T00170015  RH  100%=      5-min Rain = 0
KGU1 080012Z 06005KT 02/02 A3039 RMK A01 T00170015  RH  100%=      5-min Rain = 0
KGU1 080013Z 08005KT 02/01 A3039 RMK A01 T00160014  RH  100%=      5-min Rain = 0
KGU1 080014Z 07005KT 02/01 A3039 RMK A01 T00160014  RH  100%=      5-min Rain = 0
KGU1 080015Z 08004KT 02/01 A3038 RMK A01 T00160014  RH  100%=      5-min Rain = 0
KGU1 080016Z 09004KT 02/02 A3038 RMK A01 T00170015  RH  100%=      5-min Rain = 0
KGU1 080017Z 08005KT 02/02 A3038 RMK A01 T00170015  RH  100%=      5-min Rain = 0
KGU1 080018Z 08004KT 02/01 A3038 RMK A01 T00160014  RH  100%=      5-min Rain = 0
KGU1 080019Z 08005KT 02/01 A3038 RMK A01 T00160014  RH  100%=      5-min Rain = 0
KGU1 080020Z 08005KT 02/01 A3038 RMK A01 T00150014  RH  100%=      5-min Rain = 0
KGU1 080021Z 07004KT 02/01 A3038 RMK A01 T00150014  RH  100%=      5-min Rain = 0
KGU1 080022Z 07004KT 02/01 A3038 RMK A01 T00150013  RH  100%=      5-min Rain = 0
KGU1 080023Z 08004KT 02/01 A3039 RMK A01 T00150013  RH  100%=      5-min Rain = 0
KGU1 080024Z 08003KT 02/01 A3039 RMK A01 T00150014  RH  100%=      5-min Rain = 0
KGU1 080025Z 08004KT 02/01 A3039 RMK A01 T00160014  RH  100%=      5-min Rain = 0
KGU1 080026Z 08004KT 02/01 A3039 RMK A01 T00160014  RH  100%=      5-min Rain = 0
KGU1 080027Z 09005KT 02/01 A3038 RMK A01 T00160014  RH  100%=      5-min Rain = 0
KGU1 080028Z 08005KT 02/01 A3038 RMK A01 T00160014  RH  100%=      5-min Rain = 0
KGU1 080029Z 09005KT 02/01 A3038 RMK A01 T00160014  RH  100%=      5-min Rain = 0
KGU1 080030Z 08005KT 02/01 A3038 RMK A01 T00150013  RH  100%=      5-min Rain = 0
KGU1 080031Z 09005KT 02/01 A3038 RMK A01 T00150013  RH  100%=      5-min Rain = 0
KGU1 080032Z 09005KT 01/01 A3038 RMK A01 T00140012  RH  100%=      5-min Rain = 0
KGU1 080033Z 09004KT 01/01 A3038 RMK A01 T00130011  RH  100%=      5-min Rain = 0
KGU1 080034Z 10005KT 01/01 A3038 RMK A01 T00140012  RH  100%=      5-min Rain = 0
KGU1 080035Z 10004KT 01/01 A3039 RMK A01 T00130012  RH  100%=      5-min Rain = 0
KGU1 080036Z 07004KT 01/01 A3039 RMK A01 T00140012  RH  100%=      5-min Rain = 0
KGU1 080037Z 07004KT 01/01 A3039 RMK A01 T00140012  RH  100%=      5-min Rain = 0
KGU1 080038Z 08004KT 01/01 A3039 RMK A01 T00140012  RH  100%=      5-min Rain = 0
KGU1 080039Z 08004KT 01/01 A3039 RMK A01 T00130012  RH  100%=      5-min Rain = 0
KGU1 080040Z 08004KT 01/01 A3039 RMK A01 T00130011  RH  100%=      5-min Rain = 0
KGU1 080041Z 08004KT 01/01 A3039 RMK A01 T00130011  RH  100%=      5-min Rain = 0
KGU1 080042Z 08004KT 01/01 A3039 RMK A01 T00120010  RH  100%=      5-min Rain = 0
KGU1 080043Z 10003KT 01/01 A3039 RMK A01 T00130011  RH  100%=      5-min Rain = 0
KGU1 080044Z 09005KT 01/01 A3039 RMK A01 T00140012  RH  100%=      5-min Rain = 0
KGU1 080045Z 09004KT 01/01 A3039 RMK A01 T00140012  RH  100%=      5-min Rain = 0
KGU1 080046Z 10006KT 01/01 A3039 RMK A01 T00140012  RH  100%=      5-min Rain = 0
KGU1 080047Z 10005KT 01/01 A3039 RMK A01 T00130011  RH  100%=      5-min Rain = 0
KGU1 080048Z 11006KT 01/01 A3039 RMK A01 T00130011  RH  100%=      5-min Rain = 0
KGU1 080049Z 10005KT 01/01 A3039 RMK A01 T00120010  RH  100%=      5-min Rain = 0
KGU1 080050Z 09006KT 01/01 A3039 RMK A01 T00120011  RH  100%=      5-min Rain = 0
KGU1 080051Z 09006KT 01/01 A3039 RMK A01 T00120010  RH  100%=      5-min Rain = 0
KGU1 080052Z 09005KT 01/01 A3039 RMK A01 T00120010  RH  100%=      5-min Rain = 0
KGU1 080053Z 09005KT 01/01 A3039 RMK A01 T00120010  RH  100%=      5-min Rain = 0
KGU1 080054Z 09004KT 01/01 A3039 RMK A01 T00120010  RH  100%=      5-min Rain = 0
KGU1 080055Z 08004KT 01/01 A3039 RMK A01 T00130011  RH  100%=      5-min Rain = 0
KGU1 080056Z 08005KT 01/01 A304 RMK A01 T00130011  RH  100%=      5-min Rain = 0
KGU1 080057Z 08003KT 01/01 A304 RMK A01 T00120010  RH  100%=      5-min Rain = 0
KGU1 080058Z 09004KT 01/01 A304 RMK A01 T00130011  RH  100%=      5-min Rain = 0
KGU1 080059Z 10004KT 01/01 A304 RMK A01 T00130011  RH  100%=      5-min Rain = 0
KGU1 080100Z 09004KT 01/01 A304 RMK A01 T00130011  RH  100%=      5-min Rain = 0
KGU1 080101Z 10005KT 01/01 A304 RMK A01 T00120010  RH  100%=      5-min Rain = 0
KGU1 080102Z 10004KT 01/01 A304 RMK A01 T00110009  RH  100%=      5-min Rain = 0
KGU1 080103Z 10003KT 01/01 A304 RMK A01 T00110010  RH  100%=      5-min Rain = 0
KGU1 080104Z 09004KT 01/01 A304 RMK A01 T00120010  RH  100%=      5-min Rain = 0
KGU1 080105Z 09004KT 01/01 A304 RMK A01 T00120010  RH  100%=      5-min Rain = 0
KGU1 080106Z 08004KT 01/01 A304 RMK A01 T00120010  RH  100%=      5-min Rain = 0
KGU1 080107Z 09004KT 01/01 A304 RMK A01 T00130011  RH  100%=      5-min Rain = 0
KGU1 080108Z 08004KT 01/01 A304 RMK A01 T00120010  RH  100%=      5-min Rain = 0
KGU1 080109Z 08004KT 01/01 A304 RMK A01 T00110010  RH  100%=      5-min Rain = 0
KGU1 080110Z 08004KT 01/01 A304 RMK A01 T00120010  RH  100%=      5-min Rain = 0
KGU1 080111Z 09003KT 01/01 A304 RMK A01 T00130011  RH  100%=      5-min Rain = 0
KGU1 080112Z 10003KT 01/01 A304 RMK A01 T00130011  RH  100%=      5-min Rain = 0
KGU1 080113Z 09003KT 01/01 A304 RMK A01 T00120010  RH  100%=      5-min Rain = 0
KGU1 080114Z 09002KT 01/01 A304 RMK A01 T00120010  RH  100%=      5-min Rain = 0
KGU1 080115Z 08004KT 01/01 A304 RMK A01 T00120010  RH  100%=      5-min Rain = 0
KGU1 080116Z 08005KT 01/01 A304 RMK A01 T00110009  RH  100%=      5-min Rain = 0
KGU1 080117Z 09004KT 01/01 A304 RMK A01 T00110010  RH  100%=      5-min Rain = 0
KGU1 080118Z 08004KT 01/01 A304 RMK A01 T00120010  RH  100%=      5-min Rain = 0
KGU1 080119Z 07004KT 01/01 A304 RMK A01 T00110009  RH  100%=      5-min Rain = 0
KGU1 080120Z 08004KT 01/01 A304 RMK A01 T00110009  RH  100%=      5-min Rain = 0
KGU1 080121Z 08004KT 01/01 A304 RMK A01 T00110010  RH  100%=      5-min Rain = 0
KGU1 080122Z 09004KT 01/01 A304 RMK A01 T00110009  RH  100%=      5-min Rain = 0
KGU1 080123Z 10004KT 01/01 A304 RMK A01 T00100009  RH  100%=      5-min Rain = 0
KGU1 080124Z 09005KT 01/01 A304 RMK A01 T00090008  RH  100%=      5-min Rain = 0
KGU1 080125Z 09004KT 01/01 A304 RMK A01 T00090008  RH  100%=      5-min Rain = 0
KGU1 080126Z 09004KT 01/01 A304 RMK A01 T00090008  RH  100%=      5-min Rain = 0
KGU1 080127Z 08005KT 01/01 A304 RMK A01 T00100008  RH  100%=      5-min Rain = 0
KGU1 080128Z 09005KT 01/01 A304 RMK A01 T00090008  RH  100%=      5-min Rain = 0
KGU1 080129Z 09005KT 01/01 A304 RMK A01 T00100008  RH  100%=      5-min Rain = 0
KGU1 080130Z 09005KT 01/01 A304 RMK A01 T00090008  RH  100%=      5-min Rain = 0
KGU1 080131Z 08004KT 01/01 A304 RMK A01 T00090008  RH  100%=      5-min Rain = 0
KGU1 080132Z 08004KT 01/01 A304 RMK A01 T00100008  RH  100%=      5-min Rain = 0
KGU1 080133Z 08003KT 01/01 A304 RMK A01 T00110009  RH  100%=      5-min Rain = 0
KGU1 080134Z 08004KT 01/01 A304 RMK A01 T00110009  RH  100%=      5-min Rain = 0
KGU1 080135Z 08005KT 01/01 A3041 RMK A01 T00110009  RH  100%=      5-min Rain = 0
KGU1 080136Z 08005KT 01/01 A3041 RMK A01 T00100008  RH  100%=      5-min Rain = 0
KGU1 080137Z 08004KT 01/01 A3041 RMK A01 T00100008  RH  100%=      5-min Rain = 0
KGU1 080138Z 09004KT 01/01 A3041 RMK A01 T00100008  RH  100%=      5-min Rain = 0
KGU1 080139Z 09004KT 01/01 A3041 RMK A01 T00100008  RH  100%=      5-min Rain = 0
KGU1 080140Z 09004KT 01/01 A3041 RMK A01 T00100008  RH  100%=      5-min Rain = 0
KGU1 080141Z 08004KT 01/01 A3041 RMK A01 T00090008  RH  100%=      5-min Rain = 0
KGU1 080142Z 07004KT 01/01 A3041 RMK A01 T00100008  RH  100%=      5-min Rain = 0
KGU1 080143Z 08004KT 01/01 A3041 RMK A01 T00090007  RH  100%=      5-min Rain = 0
KGU1 080144Z 08003KT 01/01 A3041 RMK A01 T00090007  RH  100%=      5-min Rain = 0
KGU1 080145Z 07004KT 01/01 A3041 RMK A01 T00100008  RH  100%=      5-min Rain = 0
KGU1 080146Z 08005KT 01/01 A3041 RMK A01 T00100008  RH  100%=      5-min Rain = 0
KGU1 080147Z 08004KT 01/01 A3041 RMK A01 T00090008  RH  100%=      5-min Rain = 0
KGU1 080148Z 07003KT 01/01 A3041 RMK A01 T00100008  RH  100%=      5-min Rain = 0
KGU1 080149Z 08003KT 01/01 A3041 RMK A01 T00100008  RH  100%=      5-min Rain = 0
KGU1 080150Z 09003KT 01/01 A3041 RMK A01 T00100008  RH  100%=      5-min Rain = 0
KGU1 080151Z 10003KT 01/01 A3041 RMK A01 T00100008  RH  100%=      5-min Rain = 0
KGU1 080152Z 11003KT 01/01 A3041 RMK A01 T00100008  RH  100%=      5-min Rain = 0
KGU1 080153Z 10003KT 01/01 A3041 RMK A01 T00100008  RH  100%=      5-min Rain = 0
KGU1 080154Z 08003KT 01/01 A3041 RMK A01 T00100009  RH  100%=      5-min Rain = 0
KGU1 080155Z 08003KT 01/01 A3041 RMK A01 T00110009  RH  100%=      5-min Rain = 0
KGU1 080156Z 08002KT 01/01 A3041 RMK A01 T00110009  RH  100%=      5-min Rain = 0
KGU1 080157Z 09003KT 01/01 A3041 RMK A01 T00110009  RH  100%=      5-min Rain = 0
KGU1 080158Z 08002KT 01/01 A3041 RMK A01 T00100008  RH  100%=      5-min Rain = 0
KGU1 080159Z 07002KT 01/01 A3041 RMK A01 T00100008  RH  100%=      5-min Rain = 0
KGU1 080200Z 07003KT 01/01 A3041 RMK A01 T00090008  RH  100%=      5-min Rain = 0
KGU1 080201Z 07003KT 01/01 A3041 RMK A01 T00090008  RH  100%=      5-min Rain = 0
KGU1 080202Z 08002KT 01/01 A3041 RMK A01 T00100008  RH  100%=      5-min Rain = 0
KGU1 080203Z 06002KT 01/01 A3041 RMK A01 T00110009  RH  100%=      5-min Rain = 0
KGU1 080204Z 08002KT 01/01 A3041 RMK A01 T00110009  RH  100%=      5-min Rain = 0
KGU1 080205Z 08003KT 01/01 A3041 RMK A01 T00110009  RH  100%=      5-min Rain = 0
KGU1 080206Z 08003KT 01/01 A3041 RMK A01 T00110009  RH  100%=      5-min Rain = 0
KGU1 080207Z 08004KT 01/01 A3041 RMK A01 T00110009  RH  100%=      5-min Rain = 0
KGU1 080208Z 08004KT 01/01 A3041 RMK A01 T00110009  RH  100%=      5-min Rain = 0
KGU1 080209Z 08003KT 01/01 A3041 RMK A01 T00100008  RH  100%=      5-min Rain = 0
KGU1 080210Z 06004KT 01/01 A3041 RMK A01 T00100008  RH  100%=      5-min Rain = 0
KGU1 080211Z 07004KT 01/01 A3041 RMK A01 T00100008  RH  100%=      5-min Rain = 0
KGU1 080212Z 07003KT 01/01 A3041 RMK A01 T00100008  RH  100%=      5-min Rain = 0
KGU1 080213Z 09003KT 01/01 A3041 RMK A01 T00100008  RH  100%=      5-min Rain = 0
KGU1 080214Z 08003KT 01/01 A3041 RMK A01 T00100008  RH  100%=      5-min Rain = 0
KGU1 080215Z 10003KT 01/01 A3041 RMK A01 T00100008  RH  100%=      5-min Rain = 0
KGU1 080216Z 10003KT 01/01 A3041 RMK A01 T00100008  RH  100%=      5-min Rain = 0
KGU1 080217Z 09003KT 01/01 A3041 RMK A01 T00100008  RH  100%=      5-min Rain = 0
KGU1 080218Z 10002KT 01/01 A3041 RMK A01 T00090007  RH  100%=      5-min Rain = 0
KGU1 080219Z 08003KT 01/01 A3042 RMK A01 T00100008  RH  100%=      5-min Rain = 0
KGU1 080220Z 05004KT 01/01 A3042 RMK A01 T00100008  RH  100%=      5-min Rain = 0
KGU1 080221Z 06003KT 01/01 A3042 RMK A01 T00100008  RH  100%=      5-min Rain = 0
KGU1 080222Z 07003KT 01/01 A3042 RMK A01 T00100009  RH  100%=      5-min Rain = 0
KGU1 080223Z 07004KT 01/01 A3042 RMK A01 T00100008  RH  100%=      5-min Rain = 0
KGU1 080224Z 07003KT 01/01 A3042 RMK A01 T00100008  RH  100%=      5-min Rain = 0
KGU1 080225Z 08003KT 01/01 A3041 RMK A01 T00110009  RH  100%=      5-min Rain = 0
KGU1 080226Z 08004KT 01/01 A3041 RMK A01 T00100008  RH  100%=      5-min Rain = 0
KGU1 080227Z 08004KT 01/01 A3041 RMK A01 T00090007  RH  100%=      5-min Rain = 0
KGU1 080228Z 07004KT 01/01 A3041 RMK A01 T00090007  RH  100%=      5-min Rain = 0
KGU1 080229Z 07003KT 01/01 A3041 RMK A01 T00100008  RH  100%=      5-min Rain = 0
KGU1 080230Z 06003KT 01/01 A3041 RMK A01 T00100008  RH  100%=      5-min Rain = 0
KGU1 080231Z 06004KT 01/01 A3041 RMK A01 T00100008  RH  100%=      5-min Rain = 0
KGU1 080232Z 07003KT 01/01 A3041 RMK A01 T00100008  RH  100%=      5-min Rain = 0
KGU1 080233Z 07004KT 01/01 A3041 RMK A01 T00100008  RH  100%=      5-min Rain = 0
KGU1 080234Z 07003KT 01/01 A3041 RMK A01 T00090007  RH  100%=      5-min Rain = 0
KGU1 080235Z 07004KT 01/01 A3041 RMK A01 T00090007  RH  100%=      5-min Rain = 0
KGU1 080236Z 07003KT 01/01 A3041 RMK A01 T00090008  RH  100%=      5-min Rain = 0
KGU1 080237Z 07002KT 01/01 A3041 RMK A01 T00090008  RH  100%=      5-min Rain = 0
KGU1 080238Z 08003KT 01/01 A3041 RMK A01 T00100008  RH  100%=      5-min Rain = 0
KGU1 080239Z 09003KT 01/01 A3041 RMK A01 T00100008  RH  100%=      5-min Rain = 0
KGU1 080240Z 09003KT 01/01 A3041 RMK A01 T00100008  RH  100%=      5-min Rain = 0
KGU1 080241Z 07003KT 01/01 A3041 RMK A01 T00110009  RH  100%=      5-min Rain = 0
KGU1 080242Z 06003KT 01/01 A3041 RMK A01 T00110009  RH  100%=      5-min Rain = 0
KGU1 080243Z 06004KT 01/01 A3041 RMK A01 T00110009  RH  100%=      5-min Rain = 0
KGU1 080244Z 07004KT 01/01 A3041 RMK A01 T00110009  RH  100%=      5-min Rain = 0
KGU1 080245Z 05004KT 01/01 A3041 RMK A01 T00110009  RH  100%=      5-min Rain = 0
KGU1 080246Z 06003KT 01/01 A3041 RMK A01 T00100008  RH  100%=      5-min Rain = 0
KGU1 080247Z 06002KT 01/01 A3042 RMK A01 T00100008  RH  100%=      5-min Rain = 0
KGU1 080248Z 08003KT 01/01 A3042 RMK A01 T00100008  RH  100%=      5-min Rain = 0
KGU1 080249Z 06003KT 01/01 A3042 RMK A01 T00100008  RH  100%=      5-min Rain = 0
KGU1 080250Z 07003KT 01/01 A3042 RMK A01 T00100008  RH  100%=      5-min Rain = 0
KGU1 080251Z 09004KT 01/01 A3042 RMK A01 T00100008  RH  100%=      5-min Rain = 0
KGU1 080252Z 08004KT 01/01 A3042 RMK A01 T00090007  RH  100%=      5-min Rain = 0
KGU1 080253Z 08004KT 01/01 A3042 RMK A01 T00090008  RH  100%=      5-min Rain = 0
KGU1 080254Z 07005KT 01/01 A3041 RMK A01 T00100008  RH  100%=      5-min Rain = 0
KGU1 080255Z 07003KT 01/01 A3041 RMK A01 T00100008  RH  100%=      5-min Rain = 0
KGU1 080256Z 08004KT 01/01 A3041 RMK A01 T00100009  RH  100%=      5-min Rain = 0
KGU1 080257Z 08005KT 01/01 A3041 RMK A01 T00100008  RH  100%=      5-min Rain = 0
KGU1 080258Z 06004KT 01/01 A3041 RMK A01 T00100008  RH  100%=      5-min Rain = 0
KGU1 080259Z 07005KT 01/01 A3041 RMK A01 T00100008  RH  100%=      5-min Rain = 0
KGU1 080300Z 05004KT 01/01 A3041 RMK A01 T00090007  RH  100%=      5-min Rain = 0
KGU1 080301Z 07004KT 01/01 A3041 RMK A01 T00090007  RH  100%=      5-min Rain = 0
KGU1 080302Z 07004KT 01/01 A3041 RMK A01 T00090007  RH  100%=      5-min Rain = 0
KGU1 080303Z 06004KT 01/01 A3042 RMK A01 T00090007  RH  100%=      5-min Rain = 0
KGU1 080304Z 06004KT 01/01 A3042 RMK A01 T00080007  RH  100%=      5-min Rain = 0
KGU1 080305Z 06003KT 01/01 A3042 RMK A01 T00080006  RH  100%=      5-min Rain = 0
KGU1 080306Z 06004KT 01/01 A3042 RMK A01 T00080006  RH  100%=      5-min Rain = 0
KGU1 080307Z 06004KT 01/01 A3042 RMK A01 T00080006  RH  100%=      5-min Rain = 0
KGU1 080308Z 06004KT 01/01 A3042 RMK A01 T00080006  RH  100%=      5-min Rain = 0
KGU1 080309Z 07004KT 01/01 A3042 RMK A01 T00080006  RH  100%=      5-min Rain = 0
KGU1 080310Z 06003KT 01/01 A3042 RMK A01 T00080006  RH  100%=      5-min Rain = 0
KGU1 080311Z 05003KT 01/01 A3042 RMK A01 T00070006  RH  100%=      5-min Rain = 0
KGU1 080312Z 06003KT 01/01 A3042 RMK A01 T00070006  RH  100%=      5-min Rain = 0
KGU1 080313Z 07003KT 01/01 A3042 RMK A01 T00070006  RH  100%=      5-min Rain = 0
KGU1 080314Z 07004KT 01/01 A3042 RMK A01 T00070006  RH  100%=      5-min Rain = 0
KGU1 080315Z 07004KT 01/01 A3042 RMK A01 T00070006  RH  100%=      5-min Rain = 0
KGU1 080316Z 07003KT 01/01 A3042 RMK A01 T00080006  RH  100%=      5-min Rain = 0
KGU1 080317Z 07003KT 01/01 A3042 RMK A01 T00080007  RH  100%=      5-min Rain = 0
KGU1 080318Z 07003KT 01/01 A3042 RMK A01 T00090007  RH  100%=      5-min Rain = 0
KGU1 080319Z 07003KT 01/01 A3042 RMK A01 T00090007  RH  100%=      5-min Rain = 0
KGU1 080320Z 07002KT 01/01 A3042 RMK A01 T00090007  RH  100%=      5-min Rain = 0
KGU1 080321Z 09003KT 01/01 A3042 RMK A01 T00090008  RH  100%=      5-min Rain = 0
KGU1 080322Z 08004KT 01/01 A3042 RMK A01 T00090007  RH  100%=      5-min Rain = 0
KGU1 080323Z 07003KT 01/01 A3042 RMK A01 T00080006  RH  100%=      5-min Rain = 0
KGU1 080324Z 07004KT 01/01 A3042 RMK A01 T00090007  RH  100%=      5-min Rain = 0
KGU1 080325Z 05004KT 01/01 A3042 RMK A01 T00090007  RH  100%=      5-min Rain = 0
KGU1 080326Z 05004KT 01/01 A3042 RMK A01 T00080006  RH  100%=      5-min Rain = 0
KGU1 080327Z 05004KT 01/01 A3042 RMK A01 T00070006  RH  100%=      5-min Rain = 0
KGU1 080328Z 05003KT 01/01 A3042 RMK A01 T00080006  RH  100%=      5-min Rain = 0
KGU1 080329Z 05003KT 01/01 A3042 RMK A01 T00080006  RH  100%=      5-min Rain = 0
KGU1 080330Z 07003KT 01/01 A3042 RMK A01 T00080006  RH  100%=      5-min Rain = 0
KGU1 080331Z 07003KT 01/01 A3042 RMK A01 T00090007  RH  100%=      5-min Rain = 0
KGU1 080332Z 06003KT 01/01 A3042 RMK A01 T00090007  RH  100%=      5-min Rain = 0
KGU1 080333Z 06005KT 01/01 A3042 RMK A01 T00090007  RH  100%=      5-min Rain = 0
KGU1 080334Z 06004KT 01/01 A3042 RMK A01 T00090007  RH  100%=      5-min Rain = 0
KGU1 080335Z 06004KT 01/01 A3042 RMK A01 T00090007  RH  100%=      5-min Rain = 0
KGU1 080336Z 05004KT 01/01 A3042 RMK A01 T00080006  RH  100%=      5-min Rain = 0
KGU1 080337Z 04004KT 01/01 A3042 RMK A01 T00090007  RH  100%=      5-min Rain = 0
KGU1 080338Z 03003KT 01/01 A3042 RMK A01 T00080006  RH  100%=      5-min Rain = 0
KGU1 080339Z 06004KT 01/01 A3042 RMK A01 T00090007  RH  100%=      5-min Rain = 0
KGU1 080340Z 07004KT 01/01 A3042 RMK A01 T00080007  RH  100%=      5-min Rain = 0
KGU1 080341Z 07004KT 01/01 A3042 RMK A01 T00080006  RH  100%=      5-min Rain = 0
KGU1 080342Z 08003KT 01/01 A3042 RMK A01 T00080006  RH  100%=      5-min Rain = 0
KGU1 080343Z 07004KT 01/01 A3042 RMK A01 T00080006  RH  100%=      5-min Rain = 0
KGU1 080344Z 07003KT 01/01 A3042 RMK A01 T00080007  RH  100%=      5-min Rain = 0
KGU1 080345Z 07003KT 01/01 A3043 RMK A01 T00090007  RH  100%=      5-min Rain = 0
KGU1 080346Z 08003KT 01/01 A3043 RMK A01 T00080007  RH  100%=      5-min Rain = 0
KGU1 080347Z 08004KT 01/01 A3043 RMK A01 T00080006  RH  100%=      5-min Rain = 0
KGU1 080348Z 09004KT 01/01 A3043 RMK A01 T00080007  RH  100%=      5-min Rain = 0
KGU1 080349Z 08004KT 01/01 A3043 RMK A01 T00080006  RH  100%=      5-min Rain = 0
KGU1 080350Z 08004KT 01/01 A3043 RMK A01 T00080006  RH  100%=      5-min Rain = 0
KGU1 080351Z 07003KT 01/01 A3043 RMK A01 T00080006  RH  100%=      5-min Rain = 0
KGU1 080352Z 08004KT 01/01 A3043 RMK A01 T00080006  RH  100%=      5-min Rain = 0
KGU1 080353Z 07003KT 01/01 A3043 RMK A01 T00070006  RH  100%=      5-min Rain = 0
KGU1 080354Z 08002KT 01/01 A3043 RMK A01 T00070006  RH  100%=      5-min Rain = 0
KGU1 080355Z 07002KT 01/01 A3043 RMK A01 T00080006  RH  100%=      5-min Rain = 0
KGU1 080356Z 08003KT 01/01 A3043 RMK A01 T00080006  RH  100%=      5-min Rain = 0
KGU1 080357Z 08004KT 01/01 A3042 RMK A01 T00080006  RH  100%=      5-min Rain = 0
KGU1 080358Z 05004KT 01/01 A3042 RMK A01 T00080006  RH  100%=      5-min Rain = 0
KGU1 080359Z 06003KT 01/01 A3042 RMK A01 T00080006  RH  100%=      5-min Rain = 0
KGU1 080400Z 06003KT 01/01 A3042 RMK A01 T00080006  RH  100%=      5-min Rain = 0
KGU1 080401Z 05003KT 01/01 A3042 RMK A01 T00080006  RH  100%=      5-min Rain = 0
KGU1 080402Z 06003KT 01/01 A3042 RMK A01 T00080007  RH  100%=      5-min Rain = 0
KGU1 080403Z 07004KT 01/01 A3042 RMK A01 T00080006  RH  100%=      5-min Rain = 0
KGU1 080404Z 07004KT 01/01 A3042 RMK A01 T00080006  RH  100%=      5-min Rain = 0
KGU1 080405Z 06002KT 01/01 A3042 RMK A01 T00080006  RH  100%=      5-min Rain = 0
KGU1 080406Z 06003KT 01/01 A3042 RMK A01 T00090007  RH  100%=      5-min Rain = 0
KGU1 080407Z 05004KT 01/01 A3042 RMK A01 T00080007  RH  100%=      5-min Rain = 0
KGU1 080408Z 05003KT 01/01 A3042 RMK A01 T00080006  RH  100%=      5-min Rain = 0
KGU1 080409Z 05003KT 01/01 A3042 RMK A01 T00070006  RH  100%=      5-min Rain = 0
KGU1 080410Z 04003KT 01/01 A3042 RMK A01 T00080006  RH  100%=      5-min Rain = 0
KGU1 080411Z 03003KT 01/01 A3042 RMK A01 T00080006  RH  100%=      5-min Rain = 0
KGU1 080412Z 05002KT 01/01 A3042 RMK A01 T00080006  RH  100%=      5-min Rain = 0
KGU1 080413Z 07002KT 01/01 A3042 RMK A01 T00080006  RH  100%=      5-min Rain = 0
KGU1 080414Z 07003KT 01/01 A3042 RMK A01 T00090007  RH  100%=      5-min Rain = 0
KGU1 080415Z 06003KT 01/01 A3042 RMK A01 T00090007  RH  100%=      5-min Rain = 0
KGU1 080416Z 06003KT 01/01 A3042 RMK A01 T00080007  RH  100%=      5-min Rain = 0
KGU1 080417Z 08004KT 01/01 A3042 RMK A01 T00080006  RH  100%=      5-min Rain = 0
KGU1 080418Z 07003KT 01/01 A3042 RMK A01 T00080006  RH  100%=      5-min Rain = 0.01
KGU1 080419Z 06004KT 01/01 A3042 RMK A01 T00080006  RH  100%=      5-min Rain = 0
KGU1 080420Z 06004KT 01/01 A3042 RMK A01 T00080006  RH  100%=      5-min Rain = 0
KGU1 080421Z 06004KT 01/01 A3042 RMK A01 T00080006  RH  100%=      5-min Rain = 0
KGU1 080422Z 06003KT 01/01 A3042 RMK A01 T00080006  RH  100%=      5-min Rain = 0
KGU1 080423Z 06004KT 01/01 A3043 RMK A01 T00080007  RH  100%=      5-min Rain = 0
KGU1 080424Z 06004KT 01/01 A3043 RMK A01 T00080007  RH  100%=      5-min Rain = 0
KGU1 080425Z 06003KT 01/01 A3043 RMK A01 T00080006  RH  100%=      5-min Rain = 0
KGU1 080426Z 06004KT 01/01 A3043 RMK A01 T00070006  RH  100%=      5-min Rain = 0
KGU1 080427Z 07004KT 01/01 A3043 RMK A01 T00070006  RH  100%=      5-min Rain = 0
KGU1 080428Z 06003KT 01/01 A3043 RMK A01 T00070006  RH  100%=      5-min Rain = 0
KGU1 080429Z 06003KT 01/01 A3043 RMK A01 T00070006  RH  100%=      5-min Rain = 0
KGU1 080430Z 07003KT 01/01 A3043 RMK A01 T00080006  RH  100%=      5-min Rain = 0
KGU1 080431Z 06002KT 01/01 A3043 RMK A01 T00080006  RH  100%=      5-min Rain = 0
KGU1 080432Z 06002KT 01/01 A3043 RMK A01 T00090007  RH  100%=      5-min Rain = 0
KGU1 080433Z 08003KT 01/01 A3043 RMK A01 T00090007  RH  100%=      5-min Rain = 0
KGU1 080434Z 08002KT 01/01 A3043 RMK A01 T00090007  RH  100%=      5-min Rain = 0
KGU1 080435Z 08003KT 01/01 A3043 RMK A01 T00090007  RH  100%=      5-min Rain = 0
KGU1 080436Z 07002KT 01/01 A3043 RMK A01 T00090007  RH  100%=      5-min Rain = 0
KGU1 080437Z 07001KT 01/01 A3043 RMK A01 T00090007  RH  100%=      5-min Rain = 0
KGU1 080438Z 08002KT 01/01 A3043 RMK A01 T00090007  RH  100%=      5-min Rain = 0
KGU1 080439Z 08003KT 01/01 A3043 RMK A01 T00090008  RH  100%=      5-min Rain = 0
KGU1 080440Z 07003KT 01/01 A3043 RMK A01 T00090007  RH  100%=      5-min Rain = 0
KGU1 080441Z 07003KT 01/01 A3043 RMK A01 T00080007  RH  100%=      5-min Rain = 0
KGU1 080442Z 05003KT 01/01 A3043 RMK A01 T00080006  RH  100%=      5-min Rain = 0
KGU1 080443Z 05003KT 01/01 A3043 RMK A01 T00080006  RH  100%=      5-min Rain = 0
KGU1 080444Z 06002KT 01/01 A3043 RMK A01 T00090007  RH  100%=      5-min Rain = 0
KGU1 080445Z 06003KT 01/01 A3043 RMK A01 T00090007  RH  100%=      5-min Rain = 0
KGU1 080446Z 06004KT 01/01 A3043 RMK A01 T00100008  RH  100%=      5-min Rain = 0
KGU1 080447Z 06003KT 01/01 A3043 RMK A01 T00090007  RH  100%=      5-min Rain = 0
KGU1 080448Z 05003KT 01/01 A3043 RMK A01 T00090007  RH  100%=      5-min Rain = 0
KGU1 080449Z 06003KT 01/01 A3043 RMK A01 T00090007  RH  100%=      5-min Rain = 0
KGU1 080450Z 07002KT 01/01 A3043 RMK A01 T00090007  RH  100%=      5-min Rain = 0
KGU1 080451Z 07003KT 01/01 A3043 RMK A01 T00090008  RH  100%=      5-min Rain = 0
KGU1 080452Z 07003KT 01/01 A3043 RMK A01 T00090007  RH  100%=      5-min Rain = 0
KGU1 080453Z 07003KT 01/01 A3043 RMK A01 T00090007  RH  100%=      5-min Rain = 0
KGU1 080454Z 08002KT 01/01 A3043 RMK A01 T00090007  RH  100%=      5-min Rain = 0
KGU1 080455Z 10003KT 01/01 A3043 RMK A01 T00090007  RH  100%=      5-min Rain = 0
KGU1 080456Z 09003KT 01/01 A3043 RMK A01 T00080006  RH  100%=      5-min Rain = 0
KGU1 080457Z 10003KT 01/01 A3043 RMK A01 T00080006  RH  100%=      5-min Rain = 0
KGU1 080458Z 09004KT 01/01 A3043 RMK A01 T00080006  RH  100%=      5-min Rain = 0
KGU1 080459Z 09004KT 01/01 A3043 RMK A01 T00070006  RH  100%=      5-min Rain = 0
KGU1 080500Z 10003KT 01/01 A3043 RMK A01 T00080006  RH  100%=      5-min Rain = 0
KGU1 080501Z 09005KT 01/01 A3043 RMK A01 T00080006  RH  100%=      5-min Rain = 0
KGU1 080502Z 08005KT 01/01 A3043 RMK A01 T00080006  RH  100%=      5-min Rain = 0
KGU1 080503Z 08004KT 01/01 A3043 RMK A01 T00080006  RH  100%=      5-min Rain = 0
KGU1 080504Z 07004KT 01/01 A3043 RMK A01 T00080006  RH  100%=      5-min Rain = 0
KGU1 080505Z 06003KT 01/01 A3043 RMK A01 T00070006  RH  100%=      5-min Rain = 0
KGU1 080506Z 07003KT 01/01 A3043 RMK A01 T00070006  RH  100%=      5-min Rain = 0
KGU1 080507Z 06004KT 01/01 A3043 RMK A01 T00080006  RH  100%=      5-min Rain = 0
KGU1 080508Z 06004KT 01/01 A3043 RMK A01 T00080006  RH  100%=      5-min Rain = 0
KGU1 080509Z 06004KT 01/01 A3043 RMK A01 T00070006  RH  100%=      5-min Rain = 0
KGU1 080510Z 06004KT 01/01 A3043 RMK A01 T00070005  RH  100%=      5-min Rain = 0
KGU1 080511Z 06004KT 01/01 A3043 RMK A01 T00070005  RH  100%=      5-min Rain = 0
KGU1 080512Z 06003KT 01/01 A3043 RMK A01 T00070005  RH  100%=      5-min Rain = 0
KGU1 080513Z 07004KT 01/01 A3043 RMK A01 T00070005  RH  100%=      5-min Rain = 0
KGU1 080514Z 07003KT 01/01 A3043 RMK A01 T00070005  RH  100%=      5-min Rain = 0
KGU1 080515Z 08003KT 01/01 A3042 RMK A01 T00070005  RH  100%=      5-min Rain = 0
KGU1 080516Z 07004KT 01/01 A3042 RMK A01 T00070006  RH  100%=      5-min Rain = 0
KGU1 080517Z 06004KT 01/01 A3042 RMK A01 T00070005  RH  100%=      5-min Rain = 0
KGU1 080518Z 07003KT 01/01 A3042 RMK A01 T00070005  RH  100%=      5-min Rain = 0
KGU1 080519Z 07003KT 01/01 A3042 RMK A01 T00070005  RH  100%=      5-min Rain = 0
KGU1 080520Z 07004KT 01/01 A3043 RMK A01 T00060005  RH  100%=      5-min Rain = 0
KGU1 080521Z 06004KT 01/00 A3042 RMK A01 T00060004  RH  100%=      5-min Rain = 0
KGU1 080522Z 05003KT 01/01 A3042 RMK A01 T00070005  RH  100%=      5-min Rain = 0
KGU1 080523Z 05003KT 01/01 A3042 RMK A01 T00070005  RH  100%=      5-min Rain = 0
KGU1 080524Z 06003KT 01/01 A3042 RMK A01 T00060005  RH  100%=      5-min Rain = 0
KGU1 080525Z 05004KT 01/01 A3042 RMK A01 T00070005  RH  100%=      5-min Rain = 0
KGU1 080526Z 05004KT 01/01 A3042 RMK A01 T00070005  RH  100%=      5-min Rain = 0
KGU1 080527Z 05004KT 01/01 A3042 RMK A01 T00070006  RH  100%=      5-min Rain = 0
KGU1 080528Z 05004KT 01/01 A3042 RMK A01 T00070005  RH  100%=      5-min Rain = 0
KGU1 080529Z 05004KT 01/01 A3042 RMK A01 T00070005  RH  100%=      5-min Rain = 0
KGU1 080530Z 07003KT 01/01 A3042 RMK A01 T00070006  RH  100%=      5-min Rain = 0
KGU1 080531Z 08003KT 01/01 A3042 RMK A01 T00080006  RH  100%=      5-min Rain = 0
KGU1 080532Z 08003KT 01/01 A3042 RMK A01 T00080007  RH  100%=      5-min Rain = 0
KGU1 080533Z 07003KT 01/01 A3042 RMK A01 T00070006  RH  100%=      5-min Rain = 0
KGU1 080534Z 06003KT 01/01 A3042 RMK A01 T00070006  RH  100%=      5-min Rain = 0
KGU1 080535Z 05003KT 01/01 A3042 RMK A01 T00070005  RH  100%=      5-min Rain = 0
KGU1 080536Z 03003KT 01/01 A3042 RMK A01 T00070005  RH  100%=      5-min Rain = 0
KGU1 080537Z 04003KT 01/01 A3042 RMK A01 T00060005  RH  100%=      5-min Rain = 0
KGU1 080538Z 04003KT 01/00 A3042 RMK A01 T00060004  RH  100%=      5-min Rain = 0
KGU1 080539Z 04002KT 01/01 A3042 RMK A01 T00060005  RH  100%=      5-min Rain = 0
KGU1 080540Z 05002KT 01/00 A3042 RMK A01 T00060004  RH  100%=      5-min Rain = 0
KGU1 080541Z 05001KT 01/00 A3042 RMK A01 T00060004  RH  100%=      5-min Rain = 0
KGU1 080542Z 05002KT 01/01 A3042 RMK A01 T00060005  RH  100%=      5-min Rain = 0
KGU1 080543Z 01001KT 01/01 A3042 RMK A01 T00070005  RH  100%=      5-min Rain = 0
KGU1 080544Z 01002KT 01/01 A3042 RMK A01 T00070006  RH  100%=      5-min Rain = 0
KGU1 080545Z 06002KT 01/01 A3042 RMK A01 T00080006  RH  100%=      5-min Rain = 0
KGU1 080546Z 07002KT 01/01 A3042 RMK A01 T00080006  RH  100%=      5-min Rain = 0
KGU1 080547Z 06003KT 01/01 A3042 RMK A01 T00080007  RH  100%=      5-min Rain = 0
KGU1 080548Z 06003KT 01/01 A3042 RMK A01 T00080006  RH  100%=      5-min Rain = 0
KGU1 080549Z 04003KT 01/01 A3042 RMK A01 T00080006  RH  100%=      5-min Rain = 0
KGU1 080550Z 03003KT 01/01 A3042 RMK A01 T00080006  RH  100%=      5-min Rain = 0
KGU1 080551Z 04004KT 01/01 A3042 RMK A01 T00090007  RH  100%=      5-min Rain = 0
KGU1 080552Z 03004KT 01/01 A3042 RMK A01 T00080006  RH  100%=      5-min Rain = 0
KGU1 080553Z 02003KT 01/01 A3042 RMK A01 T00080006  RH  100%=      5-min Rain = 0
KGU1 080554Z 04003KT 01/01 A3041 RMK A01 T00080006  RH  100%=      5-min Rain = 0
KGU1 080555Z 06002KT 01/01 A3041 RMK A01 T00080006  RH  100%=      5-min Rain = 0
KGU1 080556Z 06003KT 01/01 A3041 RMK A01 T00080006  RH  100%=      5-min Rain = 0
KGU1 080557Z 04003KT 01/01 A3041 RMK A01 T00080006  RH  100%=      5-min Rain = 0
KGU1 080558Z 05003KT 01/01 A3041 RMK A01 T00080007  RH  100%=      5-min Rain = 0
KGU1 080559Z 05003KT 01/01 A3041 RMK A01 T00090007  RH  100%=      5-min Rain = 0

Page generated in 0.0717 seconds.